Time,TemperatureF,DewpointF,PressureIn,WindDirection,WindDirectionDegrees,WindSpeedMPH,WindSpeedGustMPH,Humidity,HourlyPrecipIn,Conditions,Clouds,dailyrainin,SoftwareType,DateUTC
2013-01-17 00:00:00,28.1,18.9,30.17,WSW,248,0.4,1.8,68,0.00,,,0.00,WUHU216HW,2013-01-17 06:00:00,
2013-01-17 00:03:00,27.9,18.7,30.17,WSW,248,0.4,1.8,68,0.00,,,0.00,WUHU216HW,2013-01-17 06:03:00,
2013-01-17 00:05:00,27.7,18.9,30.17,WSW,248,0.2,1.8,69,0.00,,,0.00,WUHU216HW,2013-01-17 06:05:00,
2013-01-17 00:06:00,27.5,18.7,30.17,WSW,248,0.4,1.8,69,0.00,,,0.00,WUHU216HW,2013-01-17 06:06:00,
2013-01-17 00:07:00,27.5,18.7,30.17,WSW,248,0.4,1.6,69,0.00,,,0.00,WUHU216HW,2013-01-17 06:07:00,
2013-01-17 00:08:00,27.5,18.7,30.17,WSW,248,0.4,1.6,69,0.00,,,0.00,WUHU216HW,2013-01-17 06:08:00,
2013-01-17 00:10:00,27.4,18.9,30.17,West,270,0.4,1.6,70,0.00,,,0.00,WUHU216HW,2013-01-17 06:10:00,
2013-01-17 00:11:00,27.4,18.9,30.17,West,270,0.2,1.6,70,0.00,,,0.00,WUHU216HW,2013-01-17 06:11:00,
2013-01-17 00:12:00,27.4,18.9,30.17,West,270,0.4,1.6,70,0.00,,,0.00,WUHU216HW,2013-01-17 06:12:00,
2013-01-17 00:13:00,27.4,18.9,30.17,West,270,0.4,1.6,70,0.00,,,0.00,WUHU216HW,2013-01-17 06:13:00,
2013-01-17 00:14:00,27.4,18.9,30.17,West,270,0.7,1.3,70,0.00,,,0.00,WUHU216HW,2013-01-17 06:14:00,
2013-01-17 00:15:00,27.4,18.9,30.17,West,270,0.9,1.3,70,0.00,,,0.00,WUHU216HW,2013-01-17 06:15:00,
2013-01-17 00:16:00,27.2,18.7,30.17,West,270,0.9,1.3,70,0.00,,,0.00,WUHU216HW,2013-01-17 06:16:00,
2013-01-17 00:18:00,27.4,18.9,30.17,West,270,1.8,1.8,70,0.00,,,0.00,WUHU216HW,2013-01-17 06:18:00,
2013-01-17 00:19:00,27.4,18.9,30.17,West,270,1.8,1.8,70,0.00,,,0.00,WUHU216HW,2013-01-17 06:19:00,
2013-01-17 00:21:00,27.4,18.9,30.17,WSW,248,0.4,1.8,70,0.00,,,0.00,WUHU216HW,2013-01-17 06:21:00,
2013-01-17 00:23:00,27.2,18.7,30.17,WSW,248,1.1,1.8,70,0.00,,,0.00,WUHU216HW,2013-01-17 06:23:00,
2013-01-17 00:24:00,27.2,18.7,30.17,WSW,248,1.1,1.8,70,0.00,,,0.00,WUHU216HW,2013-01-17 06:24:00,
2013-01-17 00:26:00,27.0,18.8,30.17,West,270,1.1,1.8,71,0.00,,,0.00,WUHU216HW,2013-01-17 06:26:00,
2013-01-17 00:27:00,27.0,18.8,30.17,West,270,0.7,1.8,71,0.00,,,0.00,WUHU216HW,2013-01-17 06:27:00,
2013-01-17 00:29:00,27.2,19.0,30.17,West,270,1.6,1.8,71,0.00,,,0.00,WUHU216HW,2013-01-17 06:29:00,
2013-01-17 00:30:00,27.4,19.2,30.18,West,270,1.3,1.8,71,0.00,,,0.00,WUHU216HW,2013-01-17 06:30:00,
2013-01-17 00:32:00,27.5,19.4,30.17,WSW,248,0.4,1.8,71,0.00,,,0.00,WUHU216HW,2013-01-17 06:32:00,
2013-01-17 00:33:00,27.7,19.3,30.17,West,270,2.0,2.0,70,0.00,,,0.00,WUHU216HW,2013-01-17 06:33:00,
2013-01-17 00:34:00,27.7,19.3,30.17,West,270,2.0,2.0,70,0.00,,,0.00,WUHU216HW,2013-01-17 06:34:00,
2013-01-17 00:35:00,28.1,19.6,30.17,SW,225,1.8,2.0,70,0.00,,,0.00,WUHU216HW,2013-01-17 06:35:00,
2013-01-17 00:39:00,28.4,20.0,30.18,WSW,248,2.5,2.5,70,0.00,,,0.00,WUHU216HW,2013-01-17 06:39:00,
2013-01-17 00:40:00,28.6,20.2,30.18,WSW,248,2.0,2.5,70,0.00,,,0.00,WUHU216HW,2013-01-17 06:40:00,
2013-01-17 00:44:00,28.8,20.0,30.18,WSW,248,2.0,2.5,69,0.00,,,0.00,WUHU216HW,2013-01-17 06:44:00,
2013-01-17 00:48:00,29.2,19.9,30.17,WSW,248,0.4,2.2,68,0.00,,,0.00,WUHU216HW,2013-01-17 06:48:00,
2013-01-17 00:49:00,29.2,19.9,30.17,WSW,248,0.4,2.2,68,0.00,,,0.00,WUHU216HW,2013-01-17 06:49:00,
2013-01-17 00:51:00,29.3,20.1,30.18,WSW,248,0.4,2.2,68,0.00,,,0.00,WUHU216HW,2013-01-17 06:51:00,
2013-01-17 00:52:00,29.3,19.7,30.18,WSW,248,0.7,2.0,67,0.00,,,0.00,WUHU216HW,2013-01-17 06:52:00,
2013-01-17 00:53:00,29.3,19.7,30.18,WSW,248,0.2,1.6,67,0.00,,,0.00,WUHU216HW,2013-01-17 06:53:00,
2013-01-17 00:54:00,29.3,19.7,30.18,WSW,248,0.2,1.6,67,0.00,,,0.00,WUHU216HW,2013-01-17 06:54:00,
2013-01-17 00:55:00,29.3,19.7,30.18,WSW,248,0.2,1.6,67,0.00,,,0.00,WUHU216HW,2013-01-17 06:55:00,
2013-01-17 00:57:00,29.2,19.5,30.18,WSW,248,0.0,1.6,67,0.00,,,0.00,WUHU216HW,2013-01-17 06:57:00,
2013-01-17 00:58:00,29.2,19.5,30.18,SW,225,0.4,1.6,67,0.00,,,0.00,WUHU216HW,2013-01-17 06:58:00,
2013-01-17 00:59:00,29.2,19.5,30.18,SW,225,0.4,1.6,67,0.00,,,0.00,WUHU216HW,2013-01-17 06:59:00,
2013-01-17 01:01:00,29.0,19.7,30.18,SW,225,0.0,0.9,68,0.00,,,0.00,WUHU216HW,2013-01-17 07:01:00,
2013-01-17 01:04:00,28.4,19.3,30.18,SW,225,0.0,0.4,68,0.00,,,0.00,WUHU216HW,2013-01-17 07:04:00,
2013-01-17 01:05:00,28.4,19.3,30.19,SW,225,0.0,0.4,68,0.00,,,0.00,WUHU216HW,2013-01-17 07:05:00,
2013-01-17 01:07:00,28.1,18.9,30.19,SW,225,0.0,0.4,68,0.00,,,0.00,WUHU216HW,2013-01-17 07:07:00,
2013-01-17 01:08:00,27.9,18.7,30.19,SW,225,0.0,0.0,68,0.00,,,0.00,WUHU216HW,2013-01-17 07:08:00,
2013-01-17 01:09:00,27.7,18.5,30.19,SW,225,0.0,0.0,68,0.00,,,0.00,WUHU216HW,2013-01-17 07:09:00,
2013-01-17 01:10:00,27.7,18.5,30.19,SW,225,0.0,0.0,68,0.00,,,0.00,WUHU216HW,2013-01-17 07:10:00,
2013-01-17 01:11:00,27.5,18.4,30.19,SW,225,0.0,0.0,68,0.00,,,0.00,WUHU216HW,2013-01-17 07:11:00,
2013-01-17 01:14:00,27.2,18.4,30.19,SW,225,0.0,0.0,69,0.00,,,0.00,WUHU216HW,2013-01-17 07:14:00,
2013-01-17 01:15:00,27.2,18.4,30.19,SW,225,0.0,0.0,69,0.00,,,0.00,WUHU216HW,2013-01-17 07:15:00,
2013-01-17 01:16:00,27.0,18.2,30.19,SW,225,0.0,0.0,69,0.00,,,0.00,WUHU216HW,2013-01-17 07:16:00,
2013-01-17 01:18:00,26.6,17.8,30.19,SW,225,0.0,0.0,69,0.00,,,0.00,WUHU216HW,2013-01-17 07:18:00,
2013-01-17 01:20:00,26.6,17.8,30.19,SW,225,0.0,0.0,69,0.00,,,0.00,WUHU216HW,2013-01-17 07:20:00,
2013-01-17 01:21:00,26.3,17.8,30.19,SW,225,0.0,0.0,70,0.00,,,0.00,WUHU216HW,2013-01-17 07:21:00,
2013-01-17 01:25:00,26.1,17.6,30.19,SW,225,0.0,0.0,70,0.00,,,0.00,WUHU216HW,2013-01-17 07:25:00,
2013-01-17 01:26:00,25.9,17.7,30.19,SW,225,0.0,0.0,71,0.00,,,0.00,WUHU216HW,2013-01-17 07:26:00,
2013-01-17 01:27:00,25.9,18.1,30.19,SW,225,0.0,0.0,72,0.00,,,0.00,WUHU216HW,2013-01-17 07:27:00,
2013-01-17 01:30:00,25.7,17.6,30.19,SW,225,0.0,0.0,71,0.00,,,0.00,WUHU216HW,2013-01-17 07:30:00,
2013-01-17 01:31:00,25.7,17.9,30.19,SW,225,0.0,0.0,72,0.00,,,0.00,WUHU216HW,2013-01-17 07:31:00,
2013-01-17 01:32:00,25.7,17.9,30.19,SW,225,0.0,0.0,72,0.00,,,0.00,WUHU216HW,2013-01-17 07:32:00,
2013-01-17 01:34:00,25.9,18.4,30.19,SW,225,0.0,0.0,73,0.00,,,0.00,WUHU216HW,2013-01-17 07:34:00,
2013-01-17 01:35:00,25.9,18.4,30.19,SW,225,0.0,0.0,73,0.00,,,0.00,WUHU216HW,2013-01-17 07:35:00,
2013-01-17 01:37:00,26.1,18.9,30.19,SW,225,0.0,0.0,74,0.00,,,0.00,WUHU216HW,2013-01-17 07:37:00,
2013-01-17 01:38:00,26.1,18.9,30.19,SW,225,0.0,0.0,74,0.00,,,0.00,WUHU216HW,2013-01-17 07:38:00,
2013-01-17 01:40:00,26.1,18.9,30.19,SW,225,0.0,0.0,74,0.00,,,0.00,WUHU216HW,2013-01-17 07:40:00,
2013-01-17 01:41:00,26.3,18.7,30.19,SSW,203,0.0,0.0,73,0.00,,,0.00,WUHU216HW,2013-01-17 07:41:00,
2013-01-17 01:42:00,26.3,18.7,30.19,SSW,203,0.0,0.0,73,0.00,,,0.00,WUHU216HW,2013-01-17 07:42:00,
2013-01-17 01:44:00,26.5,18.9,30.20,SSW,203,0.0,0.0,73,0.00,,,0.00,WUHU216HW,2013-01-17 07:44:00,
2013-01-17 01:45:00,26.5,18.9,30.20,SSW,203,0.0,0.0,73,0.00,,,0.00,WUHU216HW,2013-01-17 07:45:00,
2013-01-17 01:47:00,26.5,18.6,30.20,SSW,203,0.0,0.0,72,0.00,,,0.00,WUHU216HW,2013-01-17 07:47:00,
2013-01-17 01:50:00,26.6,18.8,30.19,SSW,203,0.0,0.0,72,0.00,,,0.00,WUHU216HW,2013-01-17 07:50:00,
2013-01-17 01:52:00,26.5,18.6,30.20,SSW,203,0.0,0.0,72,0.00,,,0.00,WUHU216HW,2013-01-17 07:52:00,
2013-01-17 01:53:00,26.5,18.6,30.19,SSW,203,0.0,0.0,72,0.00,,,0.00,WUHU216HW,2013-01-17 07:53:00,
2013-01-17 01:55:00,26.3,18.5,30.20,SSW,203,0.0,0.0,72,0.00,,,0.00,WUHU216HW,2013-01-17 07:55:00,
2013-01-17 01:56:00,26.3,18.5,30.20,SSW,203,0.0,0.0,72,0.00,,,0.00,WUHU216HW,2013-01-17 07:56:00,
2013-01-17 01:58:00,25.9,17.7,30.20,SSW,203,0.0,0.0,71,0.00,,,0.00,WUHU216HW,2013-01-17 07:58:00,
2013-01-17 02:00:00,25.7,17.6,30.20,SSW,203,0.0,0.0,71,0.00,,,0.00,WUHU216HW,2013-01-17 08:00:00,
2013-01-17 02:01:00,25.6,17.5,30.20,SSW,203,0.0,0.0,71,0.00,,,0.00,WUHU216HW,2013-01-17 08:01:00,
2013-01-17 02:03:00,25.4,17.6,30.20,SSW,203,0.0,0.0,72,0.00,,,0.00,WUHU216HW,2013-01-17 08:03:00,
2013-01-17 02:04:00,25.4,17.6,30.20,SSW,203,0.0,0.0,72,0.00,,,0.00,WUHU216HW,2013-01-17 08:04:00,
2013-01-17 02:05:00,25.4,17.6,30.20,SSW,203,0.0,0.0,72,0.00,,,0.00,WUHU216HW,2013-01-17 08:05:00,
2013-01-17 02:06:00,25.4,17.6,30.20,SSW,203,0.0,0.0,72,0.00,,,0.00,WUHU216HW,2013-01-17 08:06:00,
2013-01-17 02:09:00,25.0,17.2,30.20,SSW,203,0.0,0.0,72,0.00,,,0.00,WUHU216HW,2013-01-17 08:09:00,
2013-01-17 02:10:00,25.0,17.2,30.20,SSW,203,0.0,0.0,72,0.00,,,0.00,WUHU216HW,2013-01-17 08:10:00,
2013-01-17 02:11:00,25.0,17.2,30.20,SSW,203,0.0,0.0,72,0.00,,,0.00,WUHU216HW,2013-01-17 08:11:00,
2013-01-17 02:14:00,24.8,17.0,30.20,SSW,203,0.0,0.0,72,0.00,,,0.00,WUHU216HW,2013-01-17 08:14:00,
2013-01-17 02:15:00,24.8,17.4,30.20,SSW,203,0.0,0.0,73,0.00,,,0.00,WUHU216HW,2013-01-17 08:15:00,
2013-01-17 02:16:00,24.8,17.4,30.20,SSW,203,0.0,0.0,73,0.00,,,0.00,WUHU216HW,2013-01-17 08:16:00,
2013-01-17 02:20:00,24.8,18.4,30.19,SSW,203,0.0,0.0,76,0.00,,,0.00,WUHU216HW,2013-01-17 08:20:00,
2013-01-17 02:21:00,24.8,18.4,30.19,SSW,203,0.0,0.0,76,0.00,,,0.00,WUHU216HW,2013-01-17 08:21:00,
2013-01-17 02:22:00,24.8,18.0,30.19,SSW,203,0.0,0.0,75,0.00,,,0.00,WUHU216HW,2013-01-17 08:22:00,
2013-01-17 02:24:00,24.8,17.6,30.19,SSW,203,0.0,0.0,74,0.00,,,0.00,WUHU216HW,2013-01-17 08:24:00,
2013-01-17 02:25:00,24.8,17.6,30.19,SSW,203,0.0,0.0,74,0.00,,,0.00,WUHU216HW,2013-01-17 08:25:00,
2013-01-17 02:26:00,24.8,17.6,30.19,SSW,203,0.0,0.0,74,0.00,,,0.00,WUHU216HW,2013-01-17 08:26:00,
2013-01-17 02:27:00,24.8,17.6,30.19,SSW,203,0.0,0.0,74,0.00,,,0.00,WUHU216HW,2013-01-17 08:27:00,
2013-01-17 02:29:00,24.8,17.6,30.20,SSW,203,0.0,0.0,74,0.00,,,0.00,WUHU216HW,2013-01-17 08:29:00,
2013-01-17 02:31:00,24.8,17.6,30.20,SSW,203,0.0,0.0,74,0.00,,,0.00,WUHU216HW,2013-01-17 08:31:00,
2013-01-17 02:32:00,24.8,17.6,30.20,SSW,203,0.0,0.0,74,0.00,,,0.00,WUHU216HW,2013-01-17 08:32:00,
2013-01-17 02:33:00,24.8,17.6,30.19,SSW,203,0.0,0.0,74,0.00,,,0.00,WUHU216HW,2013-01-17 08:33:00,
2013-01-17 02:36:00,24.7,17.6,30.19,SSW,203,0.0,0.0,74,0.00,,,0.00,WUHU216HW,2013-01-17 08:36:00,
2013-01-17 02:37:00,24.5,17.4,30.20,SSW,203,0.0,0.0,74,0.00,,,0.00,WUHU216HW,2013-01-17 08:37:00,
2013-01-17 02:40:00,24.3,17.2,30.20,SSW,203,0.0,0.0,74,0.00,,,0.00,WUHU216HW,2013-01-17 08:40:00,
2013-01-17 02:41:00,24.3,17.2,30.20,SSW,203,0.0,0.0,74,0.00,,,0.00,WUHU216HW,2013-01-17 08:41:00,
2013-01-17 02:42:00,24.1,17.0,30.20,SSW,203,0.0,0.0,74,0.00,,,0.00,WUHU216HW,2013-01-17 08:42:00,
2013-01-17 02:43:00,24.1,17.0,30.20,SSW,203,0.0,0.0,74,0.00,,,0.00,WUHU216HW,2013-01-17 08:43:00,
2013-01-17 02:45:00,23.9,17.1,30.20,SSW,203,0.0,0.0,75,0.00,,,0.00,WUHU216HW,2013-01-17 08:45:00,
2013-01-17 02:46:00,24.1,17.7,30.20,SSW,203,0.0,0.0,76,0.00,,,0.00,WUHU216HW,2013-01-17 08:46:00,
2013-01-17 02:47:00,24.1,17.7,30.20,SSW,203,0.0,0.0,76,0.00,,,0.00,WUHU216HW,2013-01-17 08:47:00,
2013-01-17 02:49:00,24.1,17.9,30.20,SSW,203,0.0,0.0,77,0.00,,,0.00,WUHU216HW,2013-01-17 08:49:00,
2013-01-17 02:50:00,24.1,17.9,30.20,SSW,203,0.0,0.0,77,0.00,,,0.00,WUHU216HW,2013-01-17 08:50:00,
2013-01-17 02:51:00,24.1,17.9,30.20,SSW,203,0.0,0.0,77,0.00,,,0.00,WUHU216HW,2013-01-17 08:51:00,
2013-01-17 02:52:00,24.1,17.9,30.20,SSW,203,0.0,0.0,77,0.00,,,0.00,WUHU216HW,2013-01-17 08:52:00,
2013-01-17 02:53:00,24.1,17.7,30.20,SSW,203,0.0,0.0,76,0.00,,,0.00,WUHU216HW,2013-01-17 08:53:00,
2013-01-17 02:55:00,24.1,17.3,30.20,SSW,203,0.0,0.0,75,0.00,,,0.00,WUHU216HW,2013-01-17 08:55:00,
2013-01-17 02:56:00,24.1,17.3,30.20,SSW,203,0.0,0.0,75,0.00,,,0.00,WUHU216HW,2013-01-17 08:56:00,
2013-01-17 02:57:00,24.1,17.3,30.20,SSW,203,0.0,0.0,75,0.00,,,0.00,WUHU216HW,2013-01-17 08:57:00,
2013-01-17 02:58:00,24.1,17.3,30.20,SSW,203,0.0,0.0,75,0.00,,,0.00,WUHU216HW,2013-01-17 08:58:00,
2013-01-17 03:00:00,24.1,17.7,30.20,SSW,203,0.0,0.0,76,0.00,,,0.00,WUHU216HW,2013-01-17 09:00:00,
2013-01-17 03:02:00,24.3,17.8,30.20,SSW,203,0.0,0.0,76,0.00,,,0.00,WUHU216HW,2013-01-17 09:02:00,
2013-01-17 03:03:00,24.5,18.0,30.20,SW,225,0.2,0.2,76,0.00,,,0.00,WUHU216HW,2013-01-17 09:03:00,
2013-01-17 03:05:00,24.7,18.2,30.20,ENE,68,0.7,0.7,76,0.00,,,0.00,WUHU216HW,2013-01-17 09:05:00,
2013-01-17 03:06:00,24.8,18.0,30.20,ENE,68,0.7,0.7,75,0.00,,,0.00,WUHU216HW,2013-01-17 09:06:00,
2013-01-17 03:07:00,24.8,18.0,30.20,ENE,68,0.7,0.7,75,0.00,,,0.00,WUHU216HW,2013-01-17 09:07:00,
2013-01-17 03:08:00,25.0,18.5,30.20,ENE,68,0.0,0.7,76,0.00,,,0.00,WUHU216HW,2013-01-17 09:08:00,
2013-01-17 03:10:00,25.2,18.6,30.20,West,270,0.0,0.7,76,0.00,,,0.00,WUHU216HW,2013-01-17 09:10:00,
2013-01-17 03:12:00,25.2,18.4,30.20,West,270,0.0,0.7,75,0.00,,,0.00,WUHU216HW,2013-01-17 09:12:00,
2013-01-17 03:14:00,25.2,18.4,30.20,WNW,293,0.7,0.7,75,0.00,,,0.00,WUHU216HW,2013-01-17 09:14:00,
2013-01-17 03:15:00,25.2,18.4,30.20,WNW,293,0.4,0.7,75,0.00,,,0.00,WUHU216HW,2013-01-17 09:15:00,
2013-01-17 03:17:00,25.0,18.2,30.20,West,270,0.0,0.7,75,0.00,,,0.00,WUHU216HW,2013-01-17 09:17:00,
2013-01-17 03:18:00,24.8,18.0,30.20,West,270,0.0,0.7,75,0.00,,,0.00,WUHU216HW,2013-01-17 09:18:00,
2013-01-17 03:20:00,24.8,18.0,30.20,West,270,0.0,0.7,75,0.00,,,0.00,WUHU216HW,2013-01-17 09:20:00,
2013-01-17 03:22:00,24.5,17.6,30.20,West,270,0.0,0.7,75,0.00,,,0.00,WUHU216HW,2013-01-17 09:22:00,
2013-01-17 03:23:00,24.5,17.6,30.20,West,270,0.0,0.7,75,0.00,,,0.00,WUHU216HW,2013-01-17 09:23:00,
2013-01-17 03:25:00,24.3,17.5,30.20,West,270,0.0,0.2,75,0.00,,,0.00,WUHU216HW,2013-01-17 09:25:00,
2013-01-17 03:26:00,24.1,17.3,30.20,West,270,0.0,0.0,75,0.00,,,0.00,WUHU216HW,2013-01-17 09:26:00,
2013-01-17 03:28:00,24.1,17.3,30.20,West,270,0.0,0.0,75,0.00,,,0.00,WUHU216HW,2013-01-17 09:28:00,
2013-01-17 03:30:00,23.9,17.1,30.20,WNW,293,0.0,0.0,75,0.00,,,0.00,WUHU216HW,2013-01-17 09:30:00,
2013-01-17 03:31:00,23.8,17.0,30.21,WNW,293,0.0,0.0,75,0.00,,,0.00,WUHU216HW,2013-01-17 09:31:00,
2013-01-17 03:33:00,23.8,17.0,30.21,WNW,293,0.0,0.0,75,0.00,,,0.00,WUHU216HW,2013-01-17 09:33:00,
2013-01-17 03:34:00,23.6,16.8,30.21,WNW,293,0.0,0.0,75,0.00,,,0.00,WUHU216HW,2013-01-17 09:34:00,
2013-01-17 03:35:00,23.4,16.7,30.21,WNW,293,0.0,0.0,75,0.00,,,0.00,WUHU216HW,2013-01-17 09:35:00,
2013-01-17 03:38:00,23.4,16.7,30.21,WNW,293,0.0,0.0,75,0.00,,,0.00,WUHU216HW,2013-01-17 09:38:00,
2013-01-17 03:39:00,23.2,16.5,30.21,WNW,293,0.0,0.0,75,0.00,,,0.00,WUHU216HW,2013-01-17 09:39:00,
2013-01-17 03:41:00,23.2,16.7,30.21,WNW,293,0.0,0.0,76,0.00,,,0.00,WUHU216HW,2013-01-17 09:41:00,
2013-01-17 03:42:00,23.2,17.1,30.21,WNW,293,0.0,0.0,77,0.00,,,0.00,WUHU216HW,2013-01-17 09:42:00,
2013-01-17 03:43:00,23.2,17.1,30.21,WNW,293,0.0,0.0,77,0.00,,,0.00,WUHU216HW,2013-01-17 09:43:00,
2013-01-17 03:44:00,23.4,17.3,30.21,WNW,293,0.0,0.0,77,0.00,,,0.00,WUHU216HW,2013-01-17 09:44:00,
2013-01-17 03:45:00,23.4,17.3,30.21,WNW,293,0.0,0.0,77,0.00,,,0.00,WUHU216HW,2013-01-17 09:45:00,
2013-01-17 03:48:00,23.4,17.3,30.21,WNW,293,0.0,0.0,77,0.00,,,0.00,WUHU216HW,2013-01-17 09:48:00,
2013-01-17 03:50:00,23.4,17.6,30.21,WNW,293,0.0,0.0,78,0.00,,,0.00,WUHU216HW,2013-01-17 09:50:00,
2013-01-17 03:51:00,23.4,17.6,30.21,WNW,293,0.0,0.0,78,0.00,,,0.00,WUHU216HW,2013-01-17 09:51:00,
2013-01-17 03:53:00,23.4,17.3,30.22,NNW,338,0.4,0.4,77,0.00,,,0.00,WUHU216HW,2013-01-17 09:53:00,
2013-01-17 03:54:00,23.4,17.3,30.22,NW,315,2.0,2.0,77,0.00,,,0.00,WUHU216HW,2013-01-17 09:54:00,
2013-01-17 03:55:00,23.6,17.5,30.22,NW,315,0.4,2.0,77,0.00,,,0.00,WUHU216HW,2013-01-17 09:55:00,
2013-01-17 03:57:00,23.4,17.3,30.22,NW,315,0.0,2.0,77,0.00,,,0.00,WUHU216HW,2013-01-17 09:57:00,
2013-01-17 03:58:00,23.4,17.3,30.22,NW,315,0.0,2.0,77,0.00,,,0.00,WUHU216HW,2013-01-17 09:58:00,
2013-01-17 04:01:00,23.6,17.5,30.22,NW,315,1.1,2.0,77,0.00,,,0.00,WUHU216HW,2013-01-17 10:01:00,
2013-01-17 04:03:00,23.8,17.7,30.22,NW,315,1.8,2.0,77,0.00,,,0.00,WUHU216HW,2013-01-17 10:03:00,
2013-01-17 04:04:00,23.8,17.7,30.22,NW,315,1.8,2.0,77,0.00,,,0.00,WUHU216HW,2013-01-17 10:04:00,
2013-01-17 04:06:00,24.5,18.6,30.22,NW,315,2.5,3.4,78,0.00,,,0.00,WUHU216HW,2013-01-17 10:06:00,
2013-01-17 04:07:00,24.8,19.0,30.22,WNW,293,2.5,3.4,78,0.00,,,0.00,WUHU216HW,2013-01-17 10:07:00,
2013-01-17 04:09:00,25.6,19.4,30.22,WNW,293,1.1,3.4,77,0.00,,,0.00,WUHU216HW,2013-01-17 10:09:00,
2013-01-17 04:10:00,26.3,19.7,30.22,NW,315,1.3,3.4,76,0.00,,,0.00,WUHU216HW,2013-01-17 10:10:00,
2013-01-17 04:12:00,27.2,20.3,30.22,NNW,338,3.4,3.4,75,0.00,,,0.00,WUHU216HW,2013-01-17 10:12:00,
2013-01-17 04:13:00,27.7,20.8,30.22,NW,315,1.1,3.4,75,0.00,,,0.00,WUHU216HW,2013-01-17 10:13:00,
2013-01-17 04:14:00,27.7,20.8,30.22,NW,315,1.1,3.4,75,0.00,,,0.00,WUHU216HW,2013-01-17 10:14:00,
2013-01-17 04:15:00,28.4,20.9,30.23,NW,315,2.7,3.4,73,0.00,,,0.00,WUHU216HW,2013-01-17 10:15:00,
2013-01-17 04:16:00,29.0,21.1,30.22,WNW,293,2.2,3.4,72,0.00,,,0.00,WUHU216HW,2013-01-17 10:16:00,
2013-01-17 04:18:00,29.5,21.2,30.23,WNW,293,1.1,3.4,71,0.00,,,0.00,WUHU216HW,2013-01-17 10:18:00,
2013-01-17 04:19:00,29.5,21.2,30.23,WNW,293,1.1,3.4,71,0.00,,,0.00,WUHU216HW,2013-01-17 10:19:00,
2013-01-17 04:21:00,29.9,21.2,30.22,NNW,338,1.6,3.4,70,0.00,,,0.00,WUHU216HW,2013-01-17 10:21:00,
2013-01-17 04:22:00,30.2,21.2,30.23,NW,315,2.5,2.7,69,0.00,,,0.00,WUHU216HW,2013-01-17 10:22:00,
2013-01-17 04:24:00,30.2,20.9,30.23,West,270,2.5,2.7,68,0.00,,,0.00,WUHU216HW,2013-01-17 10:24:00,
2013-01-17 04:27:00,31.1,21.1,30.23,WNW,293,4.5,4.5,66,0.00,,,0.00,WUHU216HW,2013-01-17 10:27:00,
2013-01-17 04:29:00,31.3,21.2,30.23,North,0,3.4,4.5,66,0.00,,,0.00,WUHU216HW,2013-01-17 10:29:00,
2013-01-17 04:30:00,31.5,21.4,30.23,NW,315,4.5,4.5,66,0.00,,,0.00,WUHU216HW,2013-01-17 10:30:00,
2013-01-17 04:31:00,31.5,21.1,30.23,NW,315,3.6,4.5,65,0.00,,,0.00,WUHU216HW,2013-01-17 10:31:00,
2013-01-17 04:33:00,31.7,21.2,30.23,NNW,338,2.7,4.5,65,0.00,,,0.00,WUHU216HW,2013-01-17 10:33:00,
2013-01-17 04:34:00,31.7,21.2,30.23,NNW,338,2.5,4.5,65,0.00,,,0.00,WUHU216HW,2013-01-17 10:34:00,
2013-01-17 04:35:00,31.7,21.2,30.23,NNW,338,2.5,4.5,65,0.00,,,0.00,WUHU216HW,2013-01-17 10:35:00,
2013-01-17 04:36:00,31.7,21.2,30.23,NNW,338,1.8,4.5,65,0.00,,,0.00,WUHU216HW,2013-01-17 10:36:00,
2013-01-17 04:38:00,31.5,21.1,30.23,NW,315,2.0,4.5,65,0.00,,,0.00,WUHU216HW,2013-01-17 10:38:00,
2013-01-17 04:39:00,31.5,21.1,30.23,WNW,293,0.7,4.5,65,0.00,,,0.00,WUHU216HW,2013-01-17 10:39:00,
2013-01-17 04:40:00,31.5,21.1,30.23,WNW,293,0.7,4.5,65,0.00,,,0.00,WUHU216HW,2013-01-17 10:40:00,
2013-01-17 04:41:00,31.3,21.2,30.23,NNW,338,1.1,4.0,66,0.00,,,0.00,WUHU216HW,2013-01-17 10:41:00,
2013-01-17 04:42:00,31.3,21.2,30.23,NW,315,2.0,4.0,66,0.00,,,0.00,WUHU216HW,2013-01-17 10:42:00,
2013-01-17 04:44:00,31.0,20.9,30.23,NNW,338,1.3,4.0,66,0.00,,,0.00,WUHU216HW,2013-01-17 10:44:00,
2013-01-17 04:45:00,31.0,20.9,30.23,NNW,338,1.3,4.0,66,0.00,,,0.00,WUHU216HW,2013-01-17 10:45:00,
2013-01-17 04:46:00,30.8,20.7,30.23,NW,315,1.1,2.0,66,0.00,,,0.00,WUHU216HW,2013-01-17 10:46:00,
2013-01-17 04:47:00,30.8,20.7,30.23,NW,315,1.6,2.0,66,0.00,,,0.00,WUHU216HW,2013-01-17 10:47:00,
2013-01-17 04:50:00,30.6,20.5,30.23,NW,315,1.8,2.0,66,0.00,,,0.00,WUHU216HW,2013-01-17 10:50:00,
2013-01-17 04:52:00,30.6,20.5,30.23,NNW,338,0.4,1.8,66,0.00,,,0.00,WUHU216HW,2013-01-17 10:52:00,
2013-01-17 04:55:00,30.4,20.3,30.23,NW,315,0.4,1.8,66,0.00,,,0.00,WUHU216HW,2013-01-17 10:55:00,
2013-01-17 04:57:00,30.2,20.2,30.23,NNW,338,0.9,1.8,66,0.00,,,0.00,WUHU216HW,2013-01-17 10:57:00,
2013-01-17 04:59:00,30.2,20.5,30.24,NNW,338,1.1,1.6,67,0.00,,,0.00,WUHU216HW,2013-01-17 10:59:00,
2013-01-17 05:00:00,30.2,20.5,30.24,NNW,338,1.1,1.6,67,0.00,,,0.00,WUHU216HW,2013-01-17 11:00:00,
2013-01-17 05:01:00,30.1,20.3,30.24,NW,315,1.8,1.8,67,0.00,,,0.00,WUHU216HW,2013-01-17 11:01:00,
2013-01-17 05:05:00,30.1,20.3,30.24,North,0,0.7,2.2,67,0.00,,,0.00,WUHU216HW,2013-01-17 11:05:00,
2013-01-17 05:06:00,30.1,20.3,30.24,NNW,338,1.6,2.2,67,0.00,,,0.00,WUHU216HW,2013-01-17 11:06:00,
2013-01-17 05:07:00,29.9,20.5,30.24,NNW,338,1.8,2.2,68,0.00,,,0.00,WUHU216HW,2013-01-17 11:07:00,
2013-01-17 05:09:00,29.9,20.5,30.24,NNW,338,0.7,2.2,68,0.00,,,0.00,WUHU216HW,2013-01-17 11:09:00,
2013-01-17 05:10:00,29.9,20.5,30.24,NNW,338,0.7,2.2,68,0.00,,,0.00,WUHU216HW,2013-01-17 11:10:00,
2013-01-17 05:13:00,29.9,20.5,30.24,NW,315,1.1,1.8,68,0.00,,,0.00,WUHU216HW,2013-01-17 11:13:00,
2013-01-17 05:14:00,29.9,20.5,30.24,NW,315,3.4,3.4,68,0.00,,,0.00,WUHU216HW,2013-01-17 11:14:00,
2013-01-17 05:15:00,29.9,20.5,30.24,NW,315,3.4,3.4,68,0.00,,,0.00,WUHU216HW,2013-01-17 11:15:00,
2013-01-17 05:16:00,29.9,20.9,30.24,NNW,338,2.9,3.4,69,0.00,,,0.00,WUHU216HW,2013-01-17 11:16:00,
2013-01-17 05:17:00,29.9,20.9,30.24,NW,315,2.7,3.4,69,0.00,,,0.00,WUHU216HW,2013-01-17 11:17:00,
2013-01-17 05:18:00,29.9,20.9,30.24,North,0,0.4,3.4,69,0.00,,,0.00,WUHU216HW,2013-01-17 11:18:00,
2013-01-17 05:20:00,29.9,21.2,30.24,NNW,338,1.6,3.4,70,0.00,,,0.00,WUHU216HW,2013-01-17 11:20:00,
2013-01-17 05:21:00,29.9,21.2,30.24,NNW,338,1.6,3.4,70,0.00,,,0.00,WUHU216HW,2013-01-17 11:21:00,
2013-01-17 05:23:00,30.1,21.4,30.24,NNW,338,2.0,3.4,70,0.00,,,0.00,WUHU216HW,2013-01-17 11:23:00,
2013-01-17 05:25:00,30.1,21.4,30.24,North,0,2.0,3.1,70,0.00,,,0.00,WUHU216HW,2013-01-17 11:25:00,
2013-01-17 05:26:00,30.1,21.4,30.24,North,0,2.0,3.1,70,0.00,,,0.00,WUHU216HW,2013-01-17 11:26:00,
2013-01-17 05:29:00,29.9,21.2,30.25,NW,315,1.8,3.1,70,0.00,,,0.00,WUHU216HW,2013-01-17 11:29:00,
2013-01-17 05:31:00,29.9,21.2,30.25,NW,315,1.8,3.1,70,0.00,,,0.00,WUHU216HW,2013-01-17 11:31:00,
2013-01-17 05:33:00,29.9,21.6,30.25,NNW,338,1.1,3.1,71,0.00,,,0.00,WUHU216HW,2013-01-17 11:33:00,
2013-01-17 05:35:00,29.9,22.0,30.25,NW,315,1.6,2.9,72,0.00,,,0.00,WUHU216HW,2013-01-17 11:35:00,
2013-01-17 05:36:00,29.9,22.0,30.25,NW,315,1.6,2.9,72,0.00,,,0.00,WUHU216HW,2013-01-17 11:36:00,
2013-01-17 05:37:00,29.9,22.0,30.25,NNW,338,1.8,2.9,72,0.00,,,0.00,WUHU216HW,2013-01-17 11:37:00,
2013-01-17 05:40:00,30.2,22.2,30.25,NNW,338,2.7,5.4,72,0.00,,,0.00,WUHU216HW,2013-01-17 11:40:00,
2013-01-17 05:41:00,30.2,22.2,30.25,NNW,338,2.7,5.4,72,0.00,,,0.00,WUHU216HW,2013-01-17 11:41:00,
2013-01-17 05:43:00,30.6,22.6,30.25,NNW,338,2.5,5.4,72,0.00,,,0.00,WUHU216HW,2013-01-17 11:43:00,
2013-01-17 05:45:00,30.6,22.6,30.25,NNW,338,2.0,5.4,72,0.00,,,0.00,WUHU216HW,2013-01-17 11:45:00,
2013-01-17 05:46:00,30.6,22.6,30.25,NNW,338,2.0,5.4,72,0.00,,,0.00,WUHU216HW,2013-01-17 11:46:00,
2013-01-17 05:47:00,30.8,22.8,30.25,NNE,23,2.5,5.4,72,0.00,,,0.00,WUHU216HW,2013-01-17 11:47:00,
2013-01-17 05:49:00,30.6,22.6,30.25,North,0,1.8,4.3,72,0.00,,,0.00,WUHU216HW,2013-01-17 11:49:00,
2013-01-17 05:51:00,30.6,22.6,30.25,NNW,338,1.1,4.3,72,0.00,,,0.00,WUHU216HW,2013-01-17 11:51:00,
2013-01-17 05:52:00,30.6,22.6,30.25,NNW,338,1.1,4.3,72,0.00,,,0.00,WUHU216HW,2013-01-17 11:52:00,
2013-01-17 05:54:00,30.6,22.6,30.25,NNE,23,2.5,2.5,72,0.00,,,0.00,WUHU216HW,2013-01-17 11:54:00,
2013-01-17 05:55:00,30.6,22.6,30.25,North,0,4.0,4.0,72,0.00,,,0.00,WUHU216HW,2013-01-17 11:55:00,
2013-01-17 05:56:00,30.6,23.0,30.25,NW,315,1.8,4.0,73,0.00,,,0.00,WUHU216HW,2013-01-17 11:56:00,
2013-01-17 05:57:00,30.6,22.6,30.25,North,0,4.0,4.0,72,0.00,,,0.00,WUHU216HW,2013-01-17 11:57:00,
2013-01-17 05:58:00,30.6,22.6,30.25,North,0,0.7,4.0,72,0.00,,,0.00,WUHU216HW,2013-01-17 11:58:00,
2013-01-17 06:00:00,30.6,22.6,30.25,North,0,2.5,4.0,72,0.00,,,0.00,WUHU216HW,2013-01-17 12:00:00,
2013-01-17 06:02:00,30.4,22.4,30.25,North,0,0.2,4.0,72,0.00,,,0.00,WUHU216HW,2013-01-17 12:02:00,
2013-01-17 06:03:00,30.2,22.2,30.25,NNE,23,1.1,4.0,72,0.00,,,0.00,WUHU216HW,2013-01-17 12:03:00,
2013-01-17 06:04:00,30.1,22.1,30.25,North,0,1.1,4.0,72,0.00,,,0.00,WUHU216HW,2013-01-17 12:04:00,
2013-01-17 06:06:00,29.9,22.2,30.25,North,0,1.8,2.5,73,0.00,,,0.00,WUHU216HW,2013-01-17 12:06:00,
2013-01-17 06:07:00,29.9,22.2,30.25,North,0,1.8,2.5,73,0.00,,,0.00,WUHU216HW,2013-01-17 12:07:00,
2013-01-17 06:09:00,29.9,22.2,30.25,NNE,23,0.7,5.1,73,0.00,,,0.00,WUHU216HW,2013-01-17 12:09:00,
2013-01-17 06:11:00,29.7,22.1,30.26,North,0,3.4,5.1,73,0.00,,,0.00,WUHU216HW,2013-01-17 12:11:00,
2013-01-17 06:12:00,29.7,22.1,30.26,North,0,3.4,5.1,73,0.00,,,0.00,WUHU216HW,2013-01-17 12:12:00,
2013-01-17 06:14:00,29.7,22.4,30.26,North,0,2.5,5.1,74,0.00,,,0.00,WUHU216HW,2013-01-17 12:14:00,
2013-01-17 06:15:00,29.7,22.4,30.26,NNW,338,3.1,5.1,74,0.00,,,0.00,WUHU216HW,2013-01-17 12:15:00,
2013-01-17 06:16:00,29.9,22.6,30.26,North,0,3.6,5.1,74,0.00,,,0.00,WUHU216HW,2013-01-17 12:16:00,
2013-01-17 06:17:00,29.9,22.6,30.26,North,0,3.6,5.1,74,0.00,,,0.00,WUHU216HW,2013-01-17 12:17:00,
2013-01-17 06:18:00,29.9,22.6,30.26,North,0,5.8,5.8,74,0.00,,,0.00,WUHU216HW,2013-01-17 12:18:00,
2013-01-17 06:19:00,30.1,22.8,30.26,North,0,3.4,5.8,74,0.00,,,0.00,WUHU216HW,2013-01-17 12:19:00,
2013-01-17 06:22:00,30.1,22.8,30.26,North,0,2.9,5.8,74,0.00,,,0.00,WUHU216HW,2013-01-17 12:22:00,
2013-01-17 06:25:00,30.2,22.9,30.27,NNE,23,2.2,5.8,74,0.00,,,0.00,WUHU216HW,2013-01-17 12:25:00,
2013-01-17 06:27:00,30.1,22.4,30.27,NNW,338,1.6,5.8,73,0.00,,,0.00,WUHU216HW,2013-01-17 12:27:00,
2013-01-17 06:29:00,29.9,22.6,30.27,NNW,338,2.5,4.0,74,0.00,,,0.00,WUHU216HW,2013-01-17 12:29:00,
2013-01-17 06:30:00,29.9,22.6,30.27,North,0,2.7,2.9,74,0.00,,,0.00,WUHU216HW,2013-01-17 12:30:00,
2013-01-17 06:32:00,29.9,22.6,30.27,NNW,338,2.5,2.9,74,0.00,,,0.00,WUHU216HW,2013-01-17 12:32:00,
2013-01-17 06:33:00,29.9,22.6,30.27,North,0,0.9,2.9,74,0.00,,,0.00,WUHU216HW,2013-01-17 12:33:00,
2013-01-17 06:34:00,29.9,22.6,30.27,North,0,3.6,3.6,74,0.00,,,0.00,WUHU216HW,2013-01-17 12:34:00,
2013-01-17 06:37:00,29.9,22.6,30.27,North,0,2.2,3.6,74,0.00,,,0.00,WUHU216HW,2013-01-17 12:37:00,
2013-01-17 06:38:00,29.7,22.4,30.27,North,0,2.0,3.6,74,0.00,,,0.00,WUHU216HW,2013-01-17 12:38:00,
2013-01-17 06:41:00,29.5,22.2,30.28,North,0,2.0,3.6,74,0.00,,,0.00,WUHU216HW,2013-01-17 12:41:00,
2013-01-17 06:42:00,29.5,22.2,30.28,North,0,2.0,3.6,74,0.00,,,0.00,WUHU216HW,2013-01-17 12:42:00,
2013-01-17 06:43:00,29.5,22.5,30.28,NNW,338,2.2,3.6,75,0.00,,,0.00,WUHU216HW,2013-01-17 12:43:00,
2013-01-17 06:45:00,29.3,22.4,30.27,North,0,1.8,3.6,75,0.00,,,0.00,WUHU216HW,2013-01-17 12:45:00,
2013-01-17 06:46:00,29.3,22.4,30.28,NNW,338,2.0,3.6,75,0.00,,,0.00,WUHU216HW,2013-01-17 12:46:00,
2013-01-17 06:47:00,29.3,22.4,30.28,NNW,338,2.0,3.6,75,0.00,,,0.00,WUHU216HW,2013-01-17 12:47:00,
2013-01-17 06:49:00,29.2,22.2,30.28,NNW,338,1.1,3.6,75,0.00,,,0.00,WUHU216HW,2013-01-17 12:49:00,
2013-01-17 06:50:00,29.2,22.2,30.28,North,0,1.8,3.6,75,0.00,,,0.00,WUHU216HW,2013-01-17 12:50:00,
2013-01-17 06:51:00,29.2,22.5,30.28,NNW,338,2.7,3.6,76,0.00,,,0.00,WUHU216HW,2013-01-17 12:51:00,
2013-01-17 06:53:00,29.2,22.5,30.28,NNW,338,2.7,3.6,76,0.00,,,0.00,WUHU216HW,2013-01-17 12:53:00,
2013-01-17 06:54:00,29.2,22.5,30.28,NNW,338,0.7,2.7,76,0.00,,,0.00,WUHU216HW,2013-01-17 12:54:00,
2013-01-17 06:58:00,29.0,22.1,30.28,NNW,338,1.6,2.7,75,0.00,,,0.00,WUHU216HW,2013-01-17 12:58:00,
2013-01-17 07:00:00,29.0,22.1,30.28,NNW,338,1.8,2.7,75,0.00,,,0.00,WUHU216HW,2013-01-17 13:00:00,
2013-01-17 07:01:00,28.8,21.9,30.28,NNW,338,0.7,2.5,75,0.00,,,0.00,WUHU216HW,2013-01-17 13:01:00,
2013-01-17 07:02:00,28.8,21.9,30.28,North,0,1.8,2.5,75,0.00,,,0.00,WUHU216HW,2013-01-17 13:02:00,
2013-01-17 07:03:00,28.8,21.9,30.28,North,0,1.8,2.5,75,0.00,,,0.00,WUHU216HW,2013-01-17 13:03:00,
2013-01-17 07:04:00,28.6,21.7,30.29,NNW,338,1.8,2.5,75,0.00,,,0.00,WUHU216HW,2013-01-17 13:04:00,
2013-01-17 07:05:00,28.6,21.7,30.29,NNW,338,1.3,2.5,75,0.00,,,0.00,WUHU216HW,2013-01-17 13:05:00,
2013-01-17 07:08:00,28.4,21.8,30.29,North,0,2.2,3.4,76,0.00,,,0.00,WUHU216HW,2013-01-17 13:08:00,
2013-01-17 07:09:00,28.4,21.8,30.30,NE,45,3.4,3.4,76,0.00,,,0.00,WUHU216HW,2013-01-17 13:09:00,
2013-01-17 07:10:00,28.4,22.2,30.30,NNW,338,1.8,3.4,77,0.00,,,0.00,WUHU216HW,2013-01-17 13:10:00,
2013-01-17 07:13:00,28.6,22.3,30.29,NNW,338,2.7,3.4,77,0.00,,,0.00,WUHU216HW,2013-01-17 13:13:00,
2013-01-17 07:16:00,29.2,23.1,30.30,NW,315,3.4,4.3,78,0.00,,,0.00,WUHU216HW,2013-01-17 13:16:00,
2013-01-17 07:18:00,29.2,22.9,30.30,North,0,3.4,4.3,77,0.00,,,0.00,WUHU216HW,2013-01-17 13:18:00,
2013-01-17 07:21:00,29.2,23.1,30.30,NNW,338,3.6,4.3,78,0.00,,,0.00,WUHU216HW,2013-01-17 13:21:00,
2013-01-17 07:22:00,29.2,23.1,30.30,NNW,338,3.4,4.3,78,0.00,,,0.00,WUHU216HW,2013-01-17 13:22:00,
2013-01-17 07:23:00,29.2,23.1,30.30,NNW,338,3.4,4.3,78,0.00,,,0.00,WUHU216HW,2013-01-17 13:23:00,
2013-01-17 07:24:00,29.3,23.3,30.30,NNW,338,1.8,4.3,78,0.00,,,0.00,WUHU216HW,2013-01-17 13:24:00,
2013-01-17 07:25:00,29.3,23.3,30.30,NW,315,2.9,4.3,78,0.00,,,0.00,WUHU216HW,2013-01-17 13:25:00,
2013-01-17 07:28:00,29.2,23.1,30.31,NNW,338,4.0,4.3,78,0.00,,,0.00,WUHU216HW,2013-01-17 13:28:00,
2013-01-17 07:29:00,29.2,23.1,30.31,North,0,2.0,4.3,78,0.00,,,0.00,WUHU216HW,2013-01-17 13:29:00,
2013-01-17 07:30:00,29.2,23.1,30.31,NW,315,3.8,4.3,78,0.00,,,0.00,WUHU216HW,2013-01-17 13:30:00,
2013-01-17 07:32:00,29.2,23.5,30.30,North,0,4.0,4.3,79,0.00,,,0.00,WUHU216HW,2013-01-17 13:32:00,
2013-01-17 07:33:00,29.2,23.5,30.31,North,0,1.8,4.0,79,0.00,,,0.00,WUHU216HW,2013-01-17 13:33:00,
2013-01-17 07:34:00,29.2,23.5,30.31,NNE,23,1.3,4.0,79,0.00,,,0.00,WUHU216HW,2013-01-17 13:34:00,
2013-01-17 07:36:00,29.2,23.5,30.31,NNE,23,4.5,4.5,79,0.00,,,0.00,WUHU216HW,2013-01-17 13:36:00,
2013-01-17 07:37:00,29.2,23.5,30.31,NNW,338,1.8,4.5,79,0.00,,,0.00,WUHU216HW,2013-01-17 13:37:00,
2013-01-17 07:39:00,29.2,23.5,30.31,NNW,338,1.8,4.5,79,0.00,,,0.00,WUHU216HW,2013-01-17 13:39:00,
2013-01-17 07:40:00,29.2,23.5,30.31,NNW,338,4.0,4.5,79,0.00,,,0.00,WUHU216HW,2013-01-17 13:40:00,
2013-01-17 07:42:00,29.2,23.8,30.31,NNE,23,3.4,4.5,80,0.00,,,0.00,WUHU216HW,2013-01-17 13:42:00,
2013-01-17 07:44:00,29.3,23.7,30.31,NW,315,1.8,4.5,79,0.00,,,0.00,WUHU216HW,2013-01-17 13:44:00,
2013-01-17 07:45:00,29.3,23.7,30.31,North,0,2.0,4.5,79,0.00,,,0.00,WUHU216HW,2013-01-17 13:45:00,
2013-01-17 07:46:00,29.3,23.9,30.31,North,0,1.3,4.0,80,0.00,,,0.00,WUHU216HW,2013-01-17 13:46:00,
2013-01-17 07:48:00,29.3,23.7,30.32,NNW,338,1.8,4.0,79,0.00,,,0.00,WUHU216HW,2013-01-17 13:48:00,
2013-01-17 07:49:00,29.3,23.7,30.32,NNW,338,1.8,4.0,79,0.00,,,0.00,WUHU216HW,2013-01-17 13:49:00,
2013-01-17 07:50:00,29.5,24.1,30.32,North,0,2.5,3.4,80,0.00,,,0.00,WUHU216HW,2013-01-17 13:50:00,
2013-01-17 07:53:00,29.7,23.9,30.31,North,0,2.5,2.5,79,0.00,,,0.00,WUHU216HW,2013-01-17 13:53:00,
2013-01-17 07:54:00,29.7,23.9,30.31,North,0,2.5,2.5,79,0.00,,,0.00,WUHU216HW,2013-01-17 13:54:00,
2013-01-17 07:56:00,29.9,24.1,30.31,NNW,338,2.9,2.9,79,0.00,,,0.00,WUHU216HW,2013-01-17 13:56:00,
2013-01-17 07:58:00,30.1,24.3,30.31,North,0,2.5,2.9,79,0.00,,,0.00,WUHU216HW,2013-01-17 13:58:00,
2013-01-17 07:59:00,30.1,24.3,30.31,North,0,2.5,2.9,79,0.00,,,0.00,WUHU216HW,2013-01-17 13:59:00,
2013-01-17 08:00:00,30.2,24.5,30.31,NNW,338,2.9,2.9,79,0.00,,,0.00,WUHU216HW,2013-01-17 14:00:00,
2013-01-17 08:01:00,30.4,24.7,30.32,NNW,338,2.0,2.9,79,0.00,,,0.00,WUHU216HW,2013-01-17 14:01:00,
2013-01-17 08:02:00,30.6,24.8,30.32,NNW,338,2.5,2.9,79,0.00,,,0.00,WUHU216HW,2013-01-17 14:02:00,
2013-01-17 08:04:00,30.6,24.6,30.32,NNW,338,2.7,2.9,78,0.00,,,0.00,WUHU216HW,2013-01-17 14:04:00,
2013-01-17 08:05:00,30.8,24.8,30.32,NNW,338,2.5,2.9,78,0.00,,,0.00,WUHU216HW,2013-01-17 14:05:00,
2013-01-17 08:06:00,30.8,24.8,30.32,NNE,23,3.4,3.4,78,0.00,,,0.00,WUHU216HW,2013-01-17 14:06:00,
2013-01-17 08:08:00,31.1,25.1,30.32,NW,315,1.8,3.4,78,0.00,,,0.00,WUHU216HW,2013-01-17 14:08:00,
2013-01-17 08:09:00,31.1,25.1,30.32,NW,315,1.8,3.4,78,0.00,,,0.00,WUHU216HW,2013-01-17 14:09:00,
2013-01-17 08:10:00,31.3,25.3,30.32,North,0,2.5,3.4,78,0.00,,,0.00,WUHU216HW,2013-01-17 14:10:00,
2013-01-17 08:12:00,31.3,25.3,30.32,NNW,338,3.4,3.4,78,0.00,,,0.00,WUHU216HW,2013-01-17 14:12:00,
2013-01-17 08:14:00,31.7,25.7,30.33,North,0,2.0,3.4,78,0.00,,,0.00,WUHU216HW,2013-01-17 14:14:00,
2013-01-17 08:15:00,31.7,25.7,30.33,North,0,2.0,3.4,78,0.00,,,0.00,WUHU216HW,2013-01-17 14:15:00,
2013-01-17 08:17:00,31.9,25.8,30.33,North,0,1.8,4.0,78,0.00,,,0.00,WUHU216HW,2013-01-17 14:17:00,
2013-01-17 08:19:00,32.0,26.0,30.33,NNW,338,1.3,4.0,78,0.00,,,0.00,WUHU216HW,2013-01-17 14:19:00,
2013-01-17 08:20:00,32.0,26.0,30.33,NNW,338,1.3,4.0,78,0.00,,,0.00,WUHU216HW,2013-01-17 14:20:00,
2013-01-17 08:21:00,32.0,26.0,30.33,NNW,338,1.8,4.0,78,0.00,,,0.00,WUHU216HW,2013-01-17 14:21:00,
2013-01-17 08:22:00,32.0,26.0,30.33,NNW,338,2.5,4.0,78,0.00,,,0.00,WUHU216HW,2013-01-17 14:22:00,
2013-01-17 08:24:00,32.2,26.2,30.33,North,0,4.5,4.5,78,0.00,,,0.00,WUHU216HW,2013-01-17 14:24:00,
2013-01-17 08:25:00,32.2,26.2,30.33,North,0,4.5,4.5,78,0.00,,,0.00,WUHU216HW,2013-01-17 14:25:00,
2013-01-17 08:27:00,32.6,26.2,30.33,North,0,4.7,4.7,77,0.00,,,0.00,WUHU216HW,2013-01-17 14:27:00,
2013-01-17 08:29:00,32.8,26.3,30.33,NNE,23,4.9,4.9,77,0.00,,,0.00,WUHU216HW,2013-01-17 14:29:00,
2013-01-17 08:30:00,32.8,26.3,30.33,NNE,23,4.9,4.9,77,0.00,,,0.00,WUHU216HW,2013-01-17 14:30:00,
2013-01-17 08:32:00,33.1,26.6,30.33,North,0,0.4,4.9,77,0.00,,,0.00,WUHU216HW,2013-01-17 14:32:00,
2013-01-17 08:33:00,33.1,26.6,30.33,NNE,23,1.8,4.9,77,0.00,,,0.00,WUHU216HW,2013-01-17 14:33:00,
2013-01-17 08:34:00,33.1,26.3,30.34,NNE,23,2.9,4.9,76,0.00,,,0.00,WUHU216HW,2013-01-17 14:34:00,
2013-01-17 08:35:00,33.1,26.3,30.34,NNE,23,2.9,4.9,76,0.00,,,0.00,WUHU216HW,2013-01-17 14:35:00,
2013-01-17 08:36:00,33.5,26.6,30.34,North,0,0.4,4.9,76,0.00,,,0.00,WUHU216HW,2013-01-17 14:36:00,
2013-01-17 08:39:00,33.8,26.6,30.34,NNE,23,3.6,4.7,75,0.00,,,0.00,WUHU216HW,2013-01-17 14:39:00,
2013-01-17 08:40:00,33.8,26.6,30.34,NNE,23,3.6,4.7,75,0.00,,,0.00,WUHU216HW,2013-01-17 14:40:00,
2013-01-17 08:41:00,33.8,26.6,30.34,NW,315,2.5,4.7,75,0.00,,,0.00,WUHU216HW,2013-01-17 14:41:00,
2013-01-17 08:42:00,33.8,26.6,30.34,North,0,2.7,4.7,75,0.00,,,0.00,WUHU216HW,2013-01-17 14:42:00,
2013-01-17 08:45:00,34.2,27.0,30.34,NNE,23,3.8,4.7,75,0.00,,,0.00,WUHU216HW,2013-01-17 14:45:00,
2013-01-17 08:46:00,34.2,27.0,30.34,North,0,2.7,4.7,75,0.00,,,0.00,WUHU216HW,2013-01-17 14:46:00,
2013-01-17 08:47:00,34.6,27.4,30.34,NNE,23,2.5,3.8,75,0.00,,,0.00,WUHU216HW,2013-01-17 14:47:00,
2013-01-17 08:49:00,34.6,27.0,30.34,NNE,23,1.8,3.8,74,0.00,,,0.00,WUHU216HW,2013-01-17 14:49:00,
2013-01-17 08:50:00,34.6,27.0,30.34,NNE,23,1.8,3.8,74,0.00,,,0.00,WUHU216HW,2013-01-17 14:50:00,
2013-01-17 08:51:00,34.9,27.4,30.34,NNE,23,4.9,4.9,74,0.00,,,0.00,WUHU216HW,2013-01-17 14:51:00,
2013-01-17 08:53:00,34.7,27.2,30.34,North,0,2.5,4.9,74,0.00,,,0.00,WUHU216HW,2013-01-17 14:53:00,
2013-01-17 08:54:00,34.9,27.4,30.34,North,0,5.4,5.4,74,0.00,,,0.00,WUHU216HW,2013-01-17 14:54:00,
2013-01-17 08:55:00,34.9,27.4,30.34,North,0,5.4,5.4,74,0.00,,,0.00,WUHU216HW,2013-01-17 14:55:00,
2013-01-17 08:56:00,34.7,27.2,30.34,NNE,23,4.0,5.4,74,0.00,,,0.00,WUHU216HW,2013-01-17 14:56:00,
2013-01-17 08:57:00,34.9,27.4,30.34,NNE,23,4.9,5.4,74,0.00,,,0.00,WUHU216HW,2013-01-17 14:57:00,
2013-01-17 08:59:00,34.7,27.2,30.35,North,0,3.8,6.3,74,0.00,,,0.00,WUHU216HW,2013-01-17 14:59:00,
2013-01-17 09:00:00,34.7,27.2,30.35,North,0,3.8,6.3,74,0.00,,,0.00,WUHU216HW,2013-01-17 15:00:00,
2013-01-17 09:01:00,34.9,27.4,30.35,North,0,2.5,6.3,74,0.00,,,0.00,WUHU216HW,2013-01-17 15:01:00,
2013-01-17 09:02:00,34.9,27.4,30.35,North,0,3.8,6.3,74,0.00,,,0.00,WUHU216HW,2013-01-17 15:02:00,
2013-01-17 09:03:00,34.9,27.4,30.35,North,0,3.1,6.3,74,0.00,,,0.00,WUHU216HW,2013-01-17 15:03:00,
2013-01-17 09:06:00,35.1,27.5,30.35,NNE,23,2.5,6.3,74,0.00,,,0.00,WUHU216HW,2013-01-17 15:06:00,
2013-01-17 09:07:00,35.3,27.7,30.35,NNW,338,5.1,6.3,74,0.00,,,0.00,WUHU216HW,2013-01-17 15:07:00,
2013-01-17 09:09:00,35.5,27.9,30.35,North,0,4.9,5.1,74,0.00,,,0.00,WUHU216HW,2013-01-17 15:09:00,
2013-01-17 09:11:00,35.5,27.9,30.35,North,0,4.9,5.1,74,0.00,,,0.00,WUHU216HW,2013-01-17 15:11:00,
2013-01-17 09:12:00,35.8,28.3,30.35,NNW,338,3.8,5.1,74,0.00,,,0.00,WUHU216HW,2013-01-17 15:12:00,
2013-01-17 09:13:00,36.0,28.4,30.35,North,0,2.7,5.1,74,0.00,,,0.00,WUHU216HW,2013-01-17 15:13:00,
2013-01-17 09:15:00,36.2,28.4,30.35,North,0,5.8,5.8,73,0.00,,,0.00,WUHU216HW,2013-01-17 15:15:00,
2013-01-17 09:16:00,36.2,28.4,30.35,North,0,5.8,5.8,73,0.00,,,0.00,WUHU216HW,2013-01-17 15:16:00,
2013-01-17 09:17:00,36.2,28.4,30.35,NNE,23,5.1,5.8,73,0.00,,,0.00,WUHU216HW,2013-01-17 15:17:00,
2013-01-17 09:18:00,36.4,28.5,30.36,North,0,4.7,5.8,73,0.00,,,0.00,WUHU216HW,2013-01-17 15:18:00,
2013-01-17 09:20:00,36.5,29.0,30.36,NNE,23,3.4,5.8,74,0.00,,,0.00,WUHU216HW,2013-01-17 15:20:00,
2013-01-17 09:21:00,36.5,29.0,30.36,NNE,23,3.4,5.8,74,0.00,,,0.00,WUHU216HW,2013-01-17 15:21:00,
2013-01-17 09:24:00,37.1,29.5,30.36,NNW,338,4.3,5.8,74,0.00,,,0.00,WUHU216HW,2013-01-17 15:24:00,
2013-01-17 09:26:00,37.1,29.5,30.36,NNE,23,0.9,5.1,74,0.00,,,0.00,WUHU216HW,2013-01-17 15:26:00,
2013-01-17 09:28:00,37.8,30.0,30.36,ENE,68,3.4,4.5,73,0.00,,,0.00,WUHU216HW,2013-01-17 15:28:00,
2013-01-17 09:31:00,38.3,30.4,30.36,NNW,338,4.0,4.5,73,0.00,,,0.00,WUHU216HW,2013-01-17 15:31:00,
2013-01-17 09:32:00,38.7,30.4,30.36,NE,45,1.8,4.3,72,0.00,,,0.00,WUHU216HW,2013-01-17 15:32:00,
2013-01-17 09:34:00,39.1,30.4,30.36,North,0,4.5,4.5,71,0.00,,,0.00,WUHU216HW,2013-01-17 15:34:00,
2013-01-17 09:36:00,39.1,30.1,30.37,North,0,4.0,4.5,70,0.00,,,0.00,WUHU216HW,2013-01-17 15:36:00,
2013-01-17 09:38:00,38.7,30.1,30.37,North,0,3.1,6.9,71,0.00,,,0.00,WUHU216HW,2013-01-17 15:38:00,
2013-01-17 09:40:00,38.7,30.4,30.37,NNW,338,3.1,6.9,72,0.00,,,0.00,WUHU216HW,2013-01-17 15:40:00,
2013-01-17 09:41:00,38.7,30.4,30.37,NNW,338,3.1,6.9,72,0.00,,,0.00,WUHU216HW,2013-01-17 15:41:00,
2013-01-17 09:43:00,38.9,30.6,30.37,North,0,2.2,6.9,72,0.00,,,0.00,WUHU216HW,2013-01-17 15:43:00,
2013-01-17 09:45:00,39.2,31.0,30.37,North,0,6.0,6.9,72,0.00,,,0.00,WUHU216HW,2013-01-17 15:45:00,
2013-01-17 09:46:00,39.2,31.0,30.37,North,0,6.0,6.9,72,0.00,,,0.00,WUHU216HW,2013-01-17 15:46:00,
2013-01-17 09:50:00,39.6,31.0,30.37,NNW,338,3.8,6.0,71,0.00,,,0.00,WUHU216HW,2013-01-17 15:50:00,
2013-01-17 09:51:00,39.6,31.0,30.37,NNW,338,3.8,6.0,71,0.00,,,0.00,WUHU216HW,2013-01-17 15:51:00,
2013-01-17 09:52:00,39.8,31.2,30.37,NNE,23,4.0,6.0,71,0.00,,,0.00,WUHU216HW,2013-01-17 15:52:00,
2013-01-17 09:54:00,40.0,31.3,30.37,NNW,338,2.5,5.6,71,0.00,,,0.00,WUHU216HW,2013-01-17 15:54:00,
2013-01-17 09:56:00,40.3,31.3,30.37,NNE,23,6.3,6.3,70,0.00,,,0.00,WUHU216HW,2013-01-17 15:56:00,
2013-01-17 09:57:00,40.3,31.3,30.36,North,0,4.3,6.3,70,0.00,,,0.00,WUHU216HW,2013-01-17 15:57:00,
2013-01-17 09:58:00,40.5,31.5,30.36,NNE,23,5.1,6.3,70,0.00,,,0.00,WUHU216HW,2013-01-17 15:58:00,
2013-01-17 10:00:00,40.7,31.7,30.37,North,0,3.4,6.3,70,0.00,,,0.00,WUHU216HW,2013-01-17 16:00:00,
2013-01-17 10:02:00,41.2,31.9,30.37,NNE,23,2.7,6.3,69,0.00,,,0.00,WUHU216HW,2013-01-17 16:02:00,
2013-01-17 10:05:00,41.4,31.7,30.37,North,0,4.5,6.3,68,0.00,,,0.00,WUHU216HW,2013-01-17 16:05:00,
2013-01-17 10:06:00,41.4,31.7,30.37,NNE,23,4.5,6.3,68,0.00,,,0.00,WUHU216HW,2013-01-17 16:06:00,
2013-01-17 10:07:00,41.4,31.7,30.37,NNE,23,4.5,6.3,68,0.00,,,0.00,WUHU216HW,2013-01-17 16:07:00,
2013-01-17 10:08:00,41.4,32.1,30.37,NE,45,2.9,6.3,69,0.00,,,0.00,WUHU216HW,2013-01-17 16:08:00,
2013-01-17 10:09:00,41.6,32.2,30.37,NE,45,2.5,6.3,69,0.00,,,0.00,WUHU216HW,2013-01-17 16:09:00,
2013-01-17 10:11:00,42.1,33.1,30.37,ENE,68,2.7,6.3,70,0.00,,,0.00,WUHU216HW,2013-01-17 16:11:00,
2013-01-17 10:12:00,42.1,33.1,30.37,ENE,68,2.7,6.3,70,0.00,,,0.00,WUHU216HW,2013-01-17 16:12:00,
2013-01-17 10:14:00,42.1,32.8,30.37,NNE,23,3.6,7.2,69,0.00,,,0.00,WUHU216HW,2013-01-17 16:14:00,
2013-01-17 10:16:00,42.3,33.0,30.37,ENE,68,9.6,9.6,69,0.00,,,0.00,WUHU216HW,2013-01-17 16:16:00,
2013-01-17 10:17:00,42.3,33.0,30.37,ENE,68,9.6,9.6,69,0.00,,,0.00,WUHU216HW,2013-01-17 16:17:00,
2013-01-17 10:19:00,42.5,32.7,30.38,NNE,23,7.4,9.6,68,0.00,,,0.00,WUHU216HW,2013-01-17 16:19:00,
2013-01-17 10:22:00,42.1,32.3,30.38,NE,45,6.0,9.6,68,0.00,,,0.00,WUHU216HW,2013-01-17 16:22:00,
2013-01-17 10:24:00,42.1,32.3,30.38,NNW,338,6.3,9.6,68,0.00,,,0.00,WUHU216HW,2013-01-17 16:24:00,
2013-01-17 10:25:00,42.3,33.0,30.38,ENE,68,7.8,8.7,69,0.00,,,0.00,WUHU216HW,2013-01-17 16:25:00,
2013-01-17 10:27:00,42.3,32.5,30.38,NNE,23,9.2,11.4,68,0.00,,,0.00,WUHU216HW,2013-01-17 16:27:00,
2013-01-17 10:28:00,42.1,32.3,30.38,North,0,5.4,11.4,68,0.00,,,0.00,WUHU216HW,2013-01-17 16:28:00,
2013-01-17 10:31:00,42.3,32.5,30.38,NE,45,3.4,11.4,68,0.00,,,0.00,WUHU216HW,2013-01-17 16:31:00,
2013-01-17 10:32:00,42.7,32.9,30.38,NE,45,3.1,11.4,68,0.00,,,0.00,WUHU216HW,2013-01-17 16:32:00,
2013-01-17 10:33:00,42.8,33.0,30.38,NNE,23,5.4,11.4,68,0.00,,,0.00,WUHU216HW,2013-01-17 16:33:00,
2013-01-17 10:34:00,43.0,33.2,30.38,NNE,23,7.6,11.4,68,0.00,,,0.00,WUHU216HW,2013-01-17 16:34:00,
2013-01-17 10:35:00,43.0,33.2,30.38,NNE,23,4.0,11.4,68,0.00,,,0.00,WUHU216HW,2013-01-17 16:35:00,
2013-01-17 10:37:00,43.2,33.0,30.38,NE,45,7.6,7.6,67,0.00,,,0.00,WUHU216HW,2013-01-17 16:37:00,
2013-01-17 10:38:00,43.2,33.0,30.38,NE,45,7.6,7.6,67,0.00,,,0.00,WUHU216HW,2013-01-17 16:38:00,
2013-01-17 10:40:00,43.7,33.1,30.38,NNE,23,7.4,8.5,66,0.00,,,0.00,WUHU216HW,2013-01-17 16:40:00,
2013-01-17 10:41:00,43.6,33.0,30.38,ENE,68,7.6,8.5,66,0.00,,,0.00,WUHU216HW,2013-01-17 16:41:00,
2013-01-17 10:42:00,43.6,33.0,30.39,NE,45,7.4,8.5,66,0.00,,,0.00,WUHU216HW,2013-01-17 16:42:00,
2013-01-17 10:43:00,43.6,33.0,30.39,NE,45,7.4,8.5,66,0.00,,,0.00,WUHU216HW,2013-01-17 16:43:00,
2013-01-17 10:44:00,43.2,32.6,30.38,NNE,23,8.3,8.5,66,0.00,,,0.00,WUHU216HW,2013-01-17 16:44:00,
2013-01-17 10:45:00,43.2,32.6,30.38,ENE,68,5.4,8.5,66,0.00,,,0.00,WUHU216HW,2013-01-17 16:45:00,
2013-01-17 10:46:00,42.8,32.7,30.38,NNE,23,8.9,8.9,67,0.00,,,0.00,WUHU216HW,2013-01-17 16:46:00,
2013-01-17 10:48:00,42.8,32.7,30.38,NNE,23,8.9,8.9,67,0.00,,,0.00,WUHU216HW,2013-01-17 16:48:00,
2013-01-17 10:51:00,43.4,32.8,30.38,ENE,68,5.6,8.9,66,0.00,,,0.00,WUHU216HW,2013-01-17 16:51:00,
2013-01-17 10:52:00,43.6,33.0,30.38,NNE,23,3.4,8.9,66,0.00,,,0.00,WUHU216HW,2013-01-17 16:52:00,
2013-01-17 10:53:00,43.6,33.0,30.38,NNE,23,3.4,8.9,66,0.00,,,0.00,WUHU216HW,2013-01-17 16:53:00,
2013-01-17 10:54:00,43.9,33.3,30.38,NNE,23,4.0,8.9,66,0.00,,,0.00,WUHU216HW,2013-01-17 16:54:00,
2013-01-17 10:56:00,44.3,33.6,30.38,NNE,23,4.5,7.6,66,0.00,,,0.00,WUHU216HW,2013-01-17 16:56:00,
2013-01-17 10:57:00,44.3,32.9,30.38,ENE,68,10.5,10.5,64,0.00,,,0.00,WUHU216HW,2013-01-17 16:57:00,
2013-01-17 10:58:00,44.3,32.9,30.38,ENE,68,10.5,10.5,64,0.00,,,0.00,WUHU216HW,2013-01-17 16:58:00,
2013-01-17 11:00:00,43.9,32.9,30.38,NE,45,3.4,10.5,65,0.00,,,0.00,WUHU216HW,2013-01-17 17:00:00,
2013-01-17 11:01:00,44.1,33.0,30.38,North,0,2.5,10.5,65,0.00,,,0.00,WUHU216HW,2013-01-17 17:01:00,
2013-01-17 11:02:00,44.3,32.9,30.38,NE,45,8.3,10.5,64,0.00,,,0.00,WUHU216HW,2013-01-17 17:02:00,
2013-01-17 11:04:00,44.3,32.9,30.38,NE,45,8.3,10.5,64,0.00,,,0.00,WUHU216HW,2013-01-17 17:04:00,
2013-01-17 11:05:00,43.7,32.8,30.38,NE,45,8.7,10.5,65,0.00,,,0.00,WUHU216HW,2013-01-17 17:05:00,
2013-01-17 11:07:00,43.7,32.8,30.38,North,0,6.3,10.7,65,0.00,,,0.00,WUHU216HW,2013-01-17 17:07:00,
2013-01-17 11:09:00,43.7,32.8,30.38,North,0,6.3,10.7,65,0.00,,,0.00,WUHU216HW,2013-01-17 17:09:00,
2013-01-17 11:11:00,44.3,32.5,30.38,NNE,23,6.3,10.7,63,0.00,,,0.00,WUHU216HW,2013-01-17 17:11:00,
2013-01-17 11:13:00,44.3,32.5,30.38,NNW,338,8.9,10.7,63,0.00,,,0.00,WUHU216HW,2013-01-17 17:13:00,
2013-01-17 11:14:00,44.3,32.5,30.38,NNW,338,8.9,10.7,63,0.00,,,0.00,WUHU216HW,2013-01-17 17:14:00,
2013-01-17 11:15:00,44.3,32.9,30.38,North,0,5.6,10.7,64,0.00,,,0.00,WUHU216HW,2013-01-17 17:15:00,
2013-01-17 11:16:00,44.8,32.9,30.38,NE,45,4.7,8.9,63,0.00,,,0.00,WUHU216HW,2013-01-17 17:16:00,
2013-01-17 11:18:00,45.0,33.1,30.38,NNW,338,7.4,8.9,63,0.00,,,0.00,WUHU216HW,2013-01-17 17:18:00,
2013-01-17 11:19:00,45.0,33.1,30.38,NNW,338,7.4,8.9,63,0.00,,,0.00,WUHU216HW,2013-01-17 17:19:00,
2013-01-17 11:21:00,45.0,32.4,30.39,NE,45,6.9,8.9,61,0.00,,,0.00,WUHU216HW,2013-01-17 17:21:00,
2013-01-17 11:22:00,44.8,32.2,30.38,NNE,23,11.4,11.4,61,0.00,,,0.00,WUHU216HW,2013-01-17 17:22:00,
2013-01-17 11:23:00,44.8,32.9,30.38,NNE,23,8.7,11.4,63,0.00,,,0.00,WUHU216HW,2013-01-17 17:23:00,
2013-01-17 11:24:00,44.8,32.9,30.38,NNE,23,8.7,11.4,63,0.00,,,0.00,WUHU216HW,2013-01-17 17:24:00,
2013-01-17 11:26:00,45.0,32.8,30.38,NNE,23,4.7,11.4,62,0.00,,,0.00,WUHU216HW,2013-01-17 17:26:00,
2013-01-17 11:28:00,45.0,32.1,30.38,North,0,7.6,11.4,60,0.00,,,0.00,WUHU216HW,2013-01-17 17:28:00,
2013-01-17 11:29:00,45.0,32.1,30.38,North,0,7.6,11.4,60,0.00,,,0.00,WUHU216HW,2013-01-17 17:29:00,
2013-01-17 11:30:00,45.2,32.6,30.38,ENE,68,5.8,11.4,61,0.00,,,0.00,WUHU216HW,2013-01-17 17:30:00,
2013-01-17 11:31:00,45.2,32.1,30.38,NNE,23,12.3,13.4,60,0.00,,,0.00,WUHU216HW,2013-01-17 17:31:00,
2013-01-17 11:33:00,44.8,31.9,30.38,North,0,4.7,13.4,60,0.00,,,0.00,WUHU216HW,2013-01-17 17:33:00,
2013-01-17 11:34:00,44.8,31.9,30.38,North,0,4.7,13.4,60,0.00,,,0.00,WUHU216HW,2013-01-17 17:34:00,
2013-01-17 11:35:00,45.2,32.6,30.38,NE,45,6.0,13.4,61,0.00,,,0.00,WUHU216HW,2013-01-17 17:35:00,
2013-01-17 11:37:00,45.5,32.5,30.38,NNE,23,9.4,13.4,60,0.00,,,0.00,WUHU216HW,2013-01-17 17:37:00,
2013-01-17 11:39:00,45.7,32.2,30.38,North,0,5.8,13.4,59,0.00,,,0.00,WUHU216HW,2013-01-17 17:39:00,
2013-01-17 11:41:00,45.7,32.2,30.38,NNE,23,4.3,13.4,59,0.00,,,0.00,WUHU216HW,2013-01-17 17:41:00,
2013-01-17 11:44:00,46.1,32.0,30.38,NNE,23,12.1,12.1,58,0.00,,,0.00,WUHU216HW,2013-01-17 17:44:00,
2013-01-17 11:45:00,46.1,32.0,30.38,NE,45,9.4,12.1,58,0.00,,,0.00,WUHU216HW,2013-01-17 17:45:00,
2013-01-17 11:47:00,45.7,32.2,30.38,NNE,23,10.3,12.1,59,0.00,,,0.00,WUHU216HW,2013-01-17 17:47:00,
2013-01-17 11:49:00,45.9,32.4,30.38,North,0,6.3,12.1,59,0.00,,,0.00,WUHU216HW,2013-01-17 17:49:00,
2013-01-17 11:50:00,45.9,31.5,30.38,NNE,23,10.5,12.1,57,0.00,,,0.00,WUHU216HW,2013-01-17 17:50:00,
2013-01-17 11:52:00,45.9,32.0,30.38,North,0,5.6,12.1,58,0.00,,,0.00,WUHU216HW,2013-01-17 17:52:00,
2013-01-17 11:54:00,45.9,32.0,30.38,NNE,23,7.8,12.1,58,0.00,,,0.00,WUHU216HW,2013-01-17 17:54:00,
2013-01-17 11:55:00,45.9,32.0,30.38,NNE,23,7.8,12.1,58,0.00,,,0.00,WUHU216HW,2013-01-17 17:55:00,
2013-01-17 11:56:00,46.1,31.6,30.38,North,0,6.3,11.2,57,0.00,,,0.00,WUHU216HW,2013-01-17 17:56:00,
2013-01-17 11:57:00,46.4,32.4,30.38,North,0,8.5,10.7,58,0.00,,,0.00,WUHU216HW,2013-01-17 17:57:00,
2013-01-17 11:59:00,46.6,32.1,30.38,NE,45,7.6,10.7,57,0.00,,,0.00,WUHU216HW,2013-01-17 17:59:00,
2013-01-17 12:00:00,46.6,32.1,30.38,NE,45,7.6,10.7,57,0.00,,,0.00,WUHU216HW,2013-01-17 18:00:00,
2013-01-17 12:02:00,47.0,32.5,30.38,North,0,5.4,9.2,57,0.00,,,0.00,WUHU216HW,2013-01-17 18:02:00,
2013-01-17 12:04:00,47.2,32.7,30.38,North,0,2.9,8.5,57,0.00,,,0.00,WUHU216HW,2013-01-17 18:04:00,
2013-01-17 12:05:00,47.2,32.7,30.38,North,0,2.9,8.5,57,0.00,,,0.00,WUHU216HW,2013-01-17 18:05:00,
2013-01-17 12:06:00,47.3,32.9,30.38,North,0,4.3,8.5,57,0.00,,,0.00,WUHU216HW,2013-01-17 18:06:00,
2013-01-17 12:08:00,47.5,32.0,30.38,NE,45,8.5,9.2,55,0.00,,,0.00,WUHU216HW,2013-01-17 18:08:00,
2013-01-17 12:10:00,47.3,32.4,30.38,NE,45,9.2,9.2,56,0.00,,,0.00,WUHU216HW,2013-01-17 18:10:00,
2013-01-17 12:11:00,47.2,32.2,30.38,NE,45,6.0,9.2,56,0.00,,,0.00,WUHU216HW,2013-01-17 18:11:00,
2013-01-17 12:12:00,47.0,32.1,30.38,North,0,7.2,9.8,56,0.00,,,0.00,WUHU216HW,2013-01-17 18:12:00,
2013-01-17 12:14:00,47.0,32.5,30.38,ENE,68,1.1,9.8,57,0.00,,,0.00,WUHU216HW,2013-01-17 18:14:00,
2013-01-17 12:15:00,47.2,32.2,30.38,NNE,23,7.4,9.8,56,0.00,,,0.00,WUHU216HW,2013-01-17 18:15:00,
2013-01-17 12:17:00,47.3,31.9,30.38,NNE,23,5.4,9.8,55,0.00,,,0.00,WUHU216HW,2013-01-17 18:17:00,
2013-01-17 12:18:00,47.5,32.6,30.38,NNW,338,2.0,9.8,56,0.00,,,0.00,WUHU216HW,2013-01-17 18:18:00,
2013-01-17 12:20:00,47.9,32.9,30.38,NNW,338,2.0,9.8,56,0.00,,,0.00,WUHU216HW,2013-01-17 18:20:00,
2013-01-17 12:22:00,48.2,32.3,30.38,NNE,23,7.6,8.9,54,0.00,,,0.00,WUHU216HW,2013-01-17 18:22:00,
2013-01-17 12:24:00,48.2,32.3,30.38,North,0,4.7,8.9,54,0.00,,,0.00,WUHU216HW,2013-01-17 18:24:00,
2013-01-17 12:25:00,48.2,31.9,30.38,North,0,6.5,9.4,53,0.00,,,0.00,WUHU216HW,2013-01-17 18:25:00,
2013-01-17 12:27:00,48.2,31.9,30.38,NE,45,4.7,9.4,53,0.00,,,0.00,WUHU216HW,2013-01-17 18:27:00,
2013-01-17 12:28:00,48.2,32.3,30.38,North,0,4.7,9.4,54,0.00,,,0.00,WUHU216HW,2013-01-17 18:28:00,
2013-01-17 12:30:00,48.1,31.7,30.38,ENE,68,4.0,12.1,53,0.00,,,0.00,WUHU216HW,2013-01-17 18:30:00,
2013-01-17 12:32:00,48.1,31.7,30.38,NW,315,8.9,12.1,53,0.00,,,0.00,WUHU216HW,2013-01-17 18:32:00,
2013-01-17 12:34:00,48.1,31.7,30.38,North,0,8.7,12.1,53,0.00,,,0.00,WUHU216HW,2013-01-17 18:34:00,
2013-01-17 12:35:00,48.1,31.7,30.38,North,0,8.7,12.1,53,0.00,,,0.00,WUHU216HW,2013-01-17 18:35:00,
2013-01-17 12:37:00,48.2,31.3,30.38,NNE,23,5.1,12.1,52,0.00,,,0.00,WUHU216HW,2013-01-17 18:37:00,
2013-01-17 12:39:00,48.4,32.1,30.38,WNW,293,8.5,12.1,53,0.00,,,0.00,WUHU216HW,2013-01-17 18:39:00,
2013-01-17 12:41:00,48.2,31.3,30.37,NW,315,6.3,10.1,52,0.00,,,0.00,WUHU216HW,2013-01-17 18:41:00,
2013-01-17 12:43:00,48.2,31.3,30.37,NW,315,8.1,10.1,52,0.00,,,0.00,WUHU216HW,2013-01-17 18:43:00,
2013-01-17 12:45:00,48.1,30.7,30.37,NNW,338,6.3,10.1,51,0.00,,,0.00,WUHU216HW,2013-01-17 18:45:00,
2013-01-17 12:46:00,48.1,30.7,30.37,NNW,338,6.3,10.1,51,0.00,,,0.00,WUHU216HW,2013-01-17 18:46:00,
2013-01-17 12:48:00,47.9,30.6,30.37,NE,45,9.2,10.1,51,0.00,,,0.00,WUHU216HW,2013-01-17 18:48:00,
2013-01-17 12:49:00,47.9,30.6,30.37,NNE,23,9.4,10.5,51,0.00,,,0.00,WUHU216HW,2013-01-17 18:49:00,
2013-01-17 12:51:00,47.9,30.6,30.37,NNE,23,9.4,10.5,51,0.00,,,0.00,WUHU216HW,2013-01-17 18:51:00,
2013-01-17 12:52:00,48.1,30.7,30.37,North,0,6.0,10.5,51,0.00,,,0.00,WUHU216HW,2013-01-17 18:52:00,
2013-01-17 12:55:00,48.2,30.4,30.38,North,0,6.5,10.5,50,0.00,,,0.00,WUHU216HW,2013-01-17 18:55:00,
2013-01-17 12:56:00,48.2,30.4,30.38,North,0,6.5,10.5,50,0.00,,,0.00,WUHU216HW,2013-01-17 18:56:00,
2013-01-17 12:57:00,48.6,30.8,30.38,NNE,23,8.1,11.4,50,0.00,,,0.00,WUHU216HW,2013-01-17 18:57:00,
2013-01-17 12:59:00,48.6,31.2,30.38,North,0,4.3,11.4,51,0.00,,,0.00,WUHU216HW,2013-01-17 18:59:00,
2013-01-17 13:00:00,48.4,31.1,30.38,NNW,338,8.1,11.4,51,0.00,,,0.00,WUHU216HW,2013-01-17 19:00:00,
2013-01-17 13:01:00,48.4,31.1,30.38,NNW,338,8.1,11.4,51,0.00,,,0.00,WUHU216HW,2013-01-17 19:01:00,
2013-01-17 13:03:00,48.4,31.5,30.38,NNE,23,13.2,13.2,52,0.00,,,0.00,WUHU216HW,2013-01-17 19:03:00,
2013-01-17 13:04:00,48.2,30.9,30.38,NNW,338,4.9,13.2,51,0.00,,,0.00,WUHU216HW,2013-01-17 19:04:00,
2013-01-17 13:06:00,48.6,31.7,30.38,North,0,6.0,13.2,52,0.00,,,0.00,WUHU216HW,2013-01-17 19:06:00,
2013-01-17 13:07:00,48.6,31.2,30.38,North,0,4.7,13.2,51,0.00,,,0.00,WUHU216HW,2013-01-17 19:07:00,
2013-01-17 13:08:00,49.0,32.0,30.38,North,0,5.4,13.2,52,0.00,,,0.00,WUHU216HW,2013-01-17 19:08:00,
2013-01-17 13:09:00,49.1,31.3,30.38,NW,315,9.8,13.2,50,0.00,,,0.00,WUHU216HW,2013-01-17 19:09:00,
2013-01-17 13:11:00,49.0,31.6,30.38,North,0,5.8,13.2,51,0.00,,,0.00,WUHU216HW,2013-01-17 19:11:00,
2013-01-17 13:13:00,49.0,31.1,30.38,North,0,7.8,12.1,50,0.00,,,0.00,WUHU216HW,2013-01-17 19:13:00,
2013-01-17 13:16:00,48.4,31.1,30.38,NNW,338,5.1,12.1,51,0.00,,,0.00,WUHU216HW,2013-01-17 19:16:00,
2013-01-17 13:17:00,48.8,31.4,30.38,NNW,338,3.8,12.1,51,0.00,,,0.00,WUHU216HW,2013-01-17 19:17:00,
2013-01-17 13:19:00,49.1,31.8,30.38,NNE,23,7.2,12.1,51,0.00,,,0.00,WUHU216HW,2013-01-17 19:19:00,
2013-01-17 13:20:00,49.0,30.6,30.37,NNE,23,8.5,12.1,49,0.00,,,0.00,WUHU216HW,2013-01-17 19:20:00,
2013-01-17 13:21:00,49.0,30.6,30.37,NNE,23,8.5,12.1,49,0.00,,,0.00,WUHU216HW,2013-01-17 19:21:00,
2013-01-17 13:24:00,49.3,31.0,30.38,NNE,23,8.3,12.8,49,0.00,,,0.00,WUHU216HW,2013-01-17 19:24:00,
2013-01-17 13:26:00,49.0,30.6,30.37,NNW,338,7.2,12.8,49,0.00,,,0.00,WUHU216HW,2013-01-17 19:26:00,
2013-01-17 13:27:00,49.0,30.6,30.38,NE,45,8.5,12.8,49,0.00,,,0.00,WUHU216HW,2013-01-17 19:27:00,
2013-01-17 13:29:00,49.1,30.8,30.38,North,0,7.8,12.8,49,0.00,,,0.00,WUHU216HW,2013-01-17 19:29:00,
2013-01-17 13:30:00,49.3,31.0,30.38,NNE,23,6.9,12.8,49,0.00,,,0.00,WUHU216HW,2013-01-17 19:30:00,
2013-01-17 13:32:00,49.3,30.4,30.38,NNW,338,8.9,11.6,48,0.00,,,0.00,WUHU216HW,2013-01-17 19:32:00,
2013-01-17 13:34:00,49.0,30.1,30.38,North,0,6.0,11.6,48,0.00,,,0.00,WUHU216HW,2013-01-17 19:34:00,
2013-01-17 13:35:00,49.0,30.1,30.38,NNE,23,8.7,11.6,48,0.00,,,0.00,WUHU216HW,2013-01-17 19:35:00,
2013-01-17 13:36:00,49.0,30.6,30.37,NE,45,5.6,11.6,49,0.00,,,0.00,WUHU216HW,2013-01-17 19:36:00,
2013-01-17 13:37:00,49.0,30.6,30.37,NE,45,5.6,11.6,49,0.00,,,0.00,WUHU216HW,2013-01-17 19:37:00,
2013-01-17 13:40:00,49.3,31.0,30.38,NE,45,3.4,11.0,49,0.00,,,0.00,WUHU216HW,2013-01-17 19:40:00,
2013-01-17 13:42:00,49.5,31.2,30.38,NNE,23,4.7,8.7,49,0.00,,,0.00,WUHU216HW,2013-01-17 19:42:00,
2013-01-17 13:44:00,49.9,31.5,30.37,NNE,23,0.7,8.7,49,0.00,,,0.00,WUHU216HW,2013-01-17 19:44:00,
2013-01-17 13:45:00,50.4,32.0,30.38,NNE,23,2.2,8.5,49,0.00,,,0.00,WUHU216HW,2013-01-17 19:45:00,
2013-01-17 13:47:00,50.8,31.2,30.38,NNE,23,6.9,8.5,47,0.00,,,0.00,WUHU216HW,2013-01-17 19:47:00,
2013-01-17 13:48:00,50.6,31.1,30.38,NNE,23,10.5,10.5,47,0.00,,,0.00,WUHU216HW,2013-01-17 19:48:00,
2013-01-17 13:49:00,50.0,30.5,30.38,NE,45,9.2,11.4,47,0.00,,,0.00,WUHU216HW,2013-01-17 19:49:00,
2013-01-17 13:51:00,49.7,30.3,30.38,NNE,23,6.3,11.4,47,0.00,,,0.00,WUHU216HW,2013-01-17 19:51:00,
2013-01-17 13:52:00,49.7,31.3,30.38,NNE,23,3.6,11.4,49,0.00,,,0.00,WUHU216HW,2013-01-17 19:52:00,
2013-01-17 13:56:00,49.9,30.3,30.38,NNW,338,8.9,12.5,47,0.00,,,0.00,WUHU216HW,2013-01-17 19:56:00,
2013-01-17 13:57:00,49.9,30.3,30.38,NNW,338,8.9,12.5,47,0.00,,,0.00,WUHU216HW,2013-01-17 19:57:00,
2013-01-17 13:58:00,49.9,30.3,30.37,NNE,23,7.4,12.5,47,0.00,,,0.00,WUHU216HW,2013-01-17 19:58:00,
2013-01-17 14:00:00,50.0,31.2,30.37,NNE,23,5.6,12.5,48,0.00,,,0.00,WUHU216HW,2013-01-17 20:00:00,
2013-01-17 14:01:00,50.0,30.5,30.37,WNW,293,5.6,12.5,47,0.00,,,0.00,WUHU216HW,2013-01-17 20:01:00,
2013-01-17 14:02:00,50.4,30.9,30.37,North,0,4.7,12.5,47,0.00,,,0.00,WUHU216HW,2013-01-17 20:02:00,
2013-01-17 14:04:00,50.6,30.5,30.37,NNW,338,6.9,11.4,46,0.00,,,0.00,WUHU216HW,2013-01-17 20:04:00,
2013-01-17 14:07:00,50.9,31.3,30.37,NNE,23,8.3,10.7,47,0.00,,,0.00,WUHU216HW,2013-01-17 20:07:00,
2013-01-17 14:08:00,50.9,31.3,30.37,NNE,23,8.3,10.7,47,0.00,,,0.00,WUHU216HW,2013-01-17 20:08:00,
2013-01-17 14:11:00,50.9,30.2,30.37,NNW,338,8.1,9.8,45,0.00,,,0.00,WUHU216HW,2013-01-17 20:11:00,
2013-01-17 14:12:00,50.8,30.6,30.37,North,0,6.5,9.8,46,0.00,,,0.00,WUHU216HW,2013-01-17 20:12:00,
2013-01-17 14:13:00,50.8,30.6,30.37,North,0,6.5,9.8,46,0.00,,,0.00,WUHU216HW,2013-01-17 20:13:00,
2013-01-17 14:14:00,50.6,29.9,30.37,North,0,11.9,11.9,45,0.00,,,0.00,WUHU216HW,2013-01-17 20:14:00,
2013-01-17 14:15:00,50.4,30.3,30.37,North,0,6.0,11.9,46,0.00,,,0.00,WUHU216HW,2013-01-17 20:15:00,
2013-01-17 14:18:00,50.6,30.5,30.37,NE,45,3.8,11.9,46,0.00,,,0.00,WUHU216HW,2013-01-17 20:18:00,
2013-01-17 14:19:00,50.6,29.9,30.37,North,0,7.8,11.9,45,0.00,,,0.00,WUHU216HW,2013-01-17 20:19:00,
2013-01-17 14:22:00,50.2,30.2,30.37,NNW,338,4.7,11.9,46,0.00,,,0.00,WUHU216HW,2013-01-17 20:22:00,
2013-01-17 14:23:00,50.2,30.2,30.37,NNW,338,4.7,11.9,46,0.00,,,0.00,WUHU216HW,2013-01-17 20:23:00,
2013-01-17 14:24:00,50.2,30.2,30.37,North,0,2.7,11.9,46,0.00,,,0.00,WUHU216HW,2013-01-17 20:24:00,
2013-01-17 14:25:00,50.4,30.9,30.37,NNW,338,6.7,9.2,47,0.00,,,0.00,WUHU216HW,2013-01-17 20:25:00,
2013-01-17 14:26:00,50.2,30.2,30.37,North,0,4.0,9.2,46,0.00,,,0.00,WUHU216HW,2013-01-17 20:26:00,
2013-01-17 14:28:00,50.4,30.9,30.37,NNE,23,3.1,9.2,47,0.00,,,0.00,WUHU216HW,2013-01-17 20:28:00,
2013-01-17 14:29:00,50.6,30.5,30.37,NE,45,6.5,8.5,46,0.00,,,0.00,WUHU216HW,2013-01-17 20:29:00,
2013-01-17 14:31:00,50.4,30.9,30.37,North,0,4.3,8.5,47,0.00,,,0.00,WUHU216HW,2013-01-17 20:31:00,
2013-01-17 14:33:00,50.6,31.1,30.37,WNW,293,4.9,8.5,47,0.00,,,0.00,WUHU216HW,2013-01-17 20:33:00,
2013-01-17 14:35:00,50.8,30.6,30.38,NNE,23,3.4,9.2,46,0.00,,,0.00,WUHU216HW,2013-01-17 20:35:00,
2013-01-17 14:36:00,50.4,30.3,30.37,WNW,293,8.3,9.2,46,0.00,,,0.00,WUHU216HW,2013-01-17 20:36:00,
2013-01-17 14:38:00,50.4,30.3,30.37,NNW,338,9.8,9.8,46,0.00,,,0.00,WUHU216HW,2013-01-17 20:38:00,
2013-01-17 14:39:00,50.4,29.8,30.38,North,0,6.9,9.8,45,0.00,,,0.00,WUHU216HW,2013-01-17 20:39:00,
2013-01-17 14:40:00,50.0,30.0,30.37,NNW,338,2.5,11.0,46,0.00,,,0.00,WUHU216HW,2013-01-17 20:40:00,
2013-01-17 14:42:00,50.4,30.9,30.37,NE,45,3.8,11.0,47,0.00,,,0.00,WUHU216HW,2013-01-17 20:42:00,
2013-01-17 14:43:00,50.4,30.9,30.37,NE,45,3.8,11.0,47,0.00,,,0.00,WUHU216HW,2013-01-17 20:43:00,
2013-01-17 14:44:00,50.9,30.8,30.38,NE,45,4.0,11.0,46,0.00,,,0.00,WUHU216HW,2013-01-17 20:44:00,
2013-01-17 14:45:00,51.1,31.0,30.38,NNW,338,5.6,11.0,46,0.00,,,0.00,WUHU216HW,2013-01-17 20:45:00,
2013-01-17 14:46:00,51.5,31.3,30.38,North,0,4.9,11.0,46,0.00,,,0.00,WUHU216HW,2013-01-17 20:46:00,
2013-01-17 14:48:00,51.5,31.3,30.38,NNW,338,4.3,11.0,46,0.00,,,0.00,WUHU216HW,2013-01-17 20:48:00,
2013-01-17 14:52:00,51.5,30.7,30.38,North,0,3.4,8.1,45,0.00,,,0.00,WUHU216HW,2013-01-17 20:52:00,
2013-01-17 14:54:00,51.5,30.7,30.37,NE,45,1.3,8.1,45,0.00,,,0.00,WUHU216HW,2013-01-17 20:54:00,
2013-01-17 14:57:00,51.5,30.7,30.38,North,0,4.7,8.1,45,0.00,,,0.00,WUHU216HW,2013-01-17 20:57:00,
2013-01-17 14:58:00,51.5,30.7,30.37,NE,45,1.8,8.1,45,0.00,,,0.00,WUHU216HW,2013-01-17 20:58:00,
2013-01-17 14:59:00,51.5,30.7,30.37,NE,45,1.8,8.1,45,0.00,,,0.00,WUHU216HW,2013-01-17 20:59:00,
2013-01-17 15:00:00,51.7,30.9,30.37,North,0,1.8,6.3,45,0.00,,,0.00,WUHU216HW,2013-01-17 21:00:00,
2013-01-17 15:01:00,52.0,31.2,30.38,ENE,68,2.0,5.4,45,0.00,,,0.00,WUHU216HW,2013-01-17 21:01:00,
2013-01-17 15:04:00,52.2,31.4,30.38,North,0,4.3,5.4,45,0.00,,,0.00,WUHU216HW,2013-01-17 21:04:00,
2013-01-17 15:05:00,52.2,30.8,30.38,NE,45,3.4,5.4,44,0.00,,,0.00,WUHU216HW,2013-01-17 21:05:00,
2013-01-17 15:07:00,51.5,30.2,30.38,NE,45,7.2,7.4,44,0.00,,,0.00,WUHU216HW,2013-01-17 21:07:00,
2013-01-17 15:09:00,51.5,30.7,30.38,NE,45,5.4,7.4,45,0.00,,,0.00,WUHU216HW,2013-01-17 21:09:00,
2013-01-17 15:10:00,51.5,30.7,30.38,NE,45,2.5,7.4,45,0.00,,,0.00,WUHU216HW,2013-01-17 21:10:00,
2013-01-17 15:11:00,51.5,30.7,30.38,NNE,23,4.0,7.4,45,0.00,,,0.00,WUHU216HW,2013-01-17 21:11:00,
2013-01-17 15:13:00,51.8,31.1,30.38,North,0,6.3,7.4,45,0.00,,,0.00,WUHU216HW,2013-01-17 21:13:00,
2013-01-17 15:14:00,51.8,31.1,30.38,North,0,6.3,7.4,45,0.00,,,0.00,WUHU216HW,2013-01-17 21:14:00,
2013-01-17 15:17:00,51.5,30.7,30.38,North,0,7.8,7.8,45,0.00,,,0.00,WUHU216HW,2013-01-17 21:17:00,
2013-01-17 15:19:00,50.9,30.2,30.38,NNW,338,8.5,8.5,45,0.00,,,0.00,WUHU216HW,2013-01-17 21:19:00,
2013-01-17 15:20:00,50.8,30.1,30.38,North,0,5.6,8.5,45,0.00,,,0.00,WUHU216HW,2013-01-17 21:20:00,
2013-01-17 15:21:00,50.8,30.6,30.38,NNE,23,7.6,8.5,46,0.00,,,0.00,WUHU216HW,2013-01-17 21:21:00,
2013-01-17 15:24:00,50.6,30.5,30.38,NNE,23,6.0,8.5,46,0.00,,,0.00,WUHU216HW,2013-01-17 21:24:00,
2013-01-17 15:26:00,50.8,30.6,30.38,WNW,293,1.3,8.5,46,0.00,,,0.00,WUHU216HW,2013-01-17 21:26:00,
2013-01-17 15:27:00,50.9,30.8,30.38,NNW,338,5.4,8.5,46,0.00,,,0.00,WUHU216HW,2013-01-17 21:27:00,
2013-01-17 15:28:00,50.9,30.2,30.38,North,0,5.4,8.5,45,0.00,,,0.00,WUHU216HW,2013-01-17 21:28:00,
2013-01-17 15:29:00,50.9,30.2,30.38,North,0,5.4,8.5,45,0.00,,,0.00,WUHU216HW,2013-01-17 21:29:00,
2013-01-17 15:30:00,51.1,31.0,30.38,NNW,338,3.8,7.6,46,0.00,,,0.00,WUHU216HW,2013-01-17 21:30:00,
2013-01-17 15:31:00,51.1,30.4,30.38,NE,45,5.6,7.2,45,0.00,,,0.00,WUHU216HW,2013-01-17 21:31:00,
2013-01-17 15:33:00,51.1,30.4,30.38,NNE,23,6.3,7.2,45,0.00,,,0.00,WUHU216HW,2013-01-17 21:33:00,
2013-01-17 15:34:00,51.1,30.4,30.38,NNE,23,6.3,7.2,45,0.00,,,0.00,WUHU216HW,2013-01-17 21:34:00,
2013-01-17 15:35:00,51.1,30.4,30.38,North,0,3.8,6.3,45,0.00,,,0.00,WUHU216HW,2013-01-17 21:35:00,
2013-01-17 15:37:00,51.3,30.6,30.38,ENE,68,2.9,6.3,45,0.00,,,0.00,WUHU216HW,2013-01-17 21:37:00,
2013-01-17 15:38:00,51.5,30.2,30.38,NE,45,3.4,6.3,44,0.00,,,0.00,WUHU216HW,2013-01-17 21:38:00,
2013-01-17 15:40:00,51.5,30.2,30.38,NE,45,3.4,6.3,44,0.00,,,0.00,WUHU216HW,2013-01-17 21:40:00,
2013-01-17 15:42:00,51.1,29.9,30.38,NNW,338,3.1,6.3,44,0.00,,,0.00,WUHU216HW,2013-01-17 21:42:00,
2013-01-17 15:43:00,51.3,30.0,30.38,North,0,1.8,6.0,44,0.00,,,0.00,WUHU216HW,2013-01-17 21:43:00,
2013-01-17 15:45:00,51.3,30.0,30.38,North,0,1.8,6.0,44,0.00,,,0.00,WUHU216HW,2013-01-17 21:45:00,
2013-01-17 15:46:00,51.7,30.3,30.38,NNW,338,3.6,6.0,44,0.00,,,0.00,WUHU216HW,2013-01-17 21:46:00,
2013-01-17 15:49:00,51.7,29.8,30.39,NNW,338,3.8,7.4,43,0.00,,,0.00,WUHU216HW,2013-01-17 21:49:00,
2013-01-17 15:50:00,51.8,30.0,30.39,NW,315,7.4,7.4,43,0.00,,,0.00,WUHU216HW,2013-01-17 21:50:00,
2013-01-17 15:52:00,50.8,29.0,30.39,NW,315,4.9,7.6,43,0.00,,,0.00,WUHU216HW,2013-01-17 21:52:00,
2013-01-17 15:55:00,50.4,29.2,30.39,North,0,5.4,7.6,44,0.00,,,0.00,WUHU216HW,2013-01-17 21:55:00,
2013-01-17 15:59:00,50.0,28.9,30.39,NNW,338,6.7,7.6,44,0.00,,,0.00,WUHU216HW,2013-01-17 21:59:00,
2013-01-17 16:00:00,50.0,28.9,30.39,NNW,338,6.7,7.6,44,0.00,,,0.00,WUHU216HW,2013-01-17 22:00:00,
2013-01-17 16:02:00,50.4,29.2,30.39,NW,315,4.5,6.7,44,0.00,,,0.00,WUHU216HW,2013-01-17 22:02:00,
2013-01-17 16:04:00,50.4,29.2,30.39,NNW,338,3.1,6.7,44,0.00,,,0.00,WUHU216HW,2013-01-17 22:04:00,
2013-01-17 16:05:00,50.4,29.2,30.39,NNW,338,3.1,6.7,44,0.00,,,0.00,WUHU216HW,2013-01-17 22:05:00,
2013-01-17 16:07:00,51.3,30.0,30.39,NNE,23,3.4,6.7,44,0.00,,,0.00,WUHU216HW,2013-01-17 22:07:00,
2013-01-17 16:08:00,51.3,29.4,30.39,NNE,23,4.7,6.7,43,0.00,,,0.00,WUHU216HW,2013-01-17 22:08:00,
2013-01-17 16:10:00,50.9,29.2,30.39,North,0,3.1,6.3,43,0.00,,,0.00,WUHU216HW,2013-01-17 22:10:00,
2013-01-17 16:11:00,50.9,29.2,30.39,NW,315,4.0,6.3,43,0.00,,,0.00,WUHU216HW,2013-01-17 22:11:00,
2013-01-17 16:14:00,50.6,28.8,30.39,NNE,23,7.6,7.6,43,0.00,,,0.00,WUHU216HW,2013-01-17 22:14:00,
2013-01-17 16:15:00,50.6,28.8,30.39,North,0,2.5,7.6,43,0.00,,,0.00,WUHU216HW,2013-01-17 22:15:00,
2013-01-17 16:17:00,50.8,29.5,30.40,NNE,23,3.8,7.6,44,0.00,,,0.00,WUHU216HW,2013-01-17 22:17:00,
2013-01-17 16:19:00,50.8,29.0,30.39,NNW,338,2.5,7.6,43,0.00,,,0.00,WUHU216HW,2013-01-17 22:19:00,
2013-01-17 16:20:00,50.8,29.0,30.39,NNW,338,2.5,7.6,43,0.00,,,0.00,WUHU216HW,2013-01-17 22:20:00,
2013-01-17 16:21:00,50.8,29.0,30.39,North,0,1.1,7.6,43,0.00,,,0.00,WUHU216HW,2013-01-17 22:21:00,
2013-01-17 16:24:00,50.6,28.8,30.39,NNW,338,6.7,6.7,43,0.00,,,0.00,WUHU216HW,2013-01-17 22:24:00,
2013-01-17 16:25:00,50.2,28.4,30.40,NNE,23,2.9,6.7,43,0.00,,,0.00,WUHU216HW,2013-01-17 22:25:00,
2013-01-17 16:26:00,50.2,28.4,30.40,NNE,23,2.9,6.7,43,0.00,,,0.00,WUHU216HW,2013-01-17 22:26:00,
2013-01-17 16:27:00,50.4,29.2,30.39,North,0,1.6,6.7,44,0.00,,,0.00,WUHU216HW,2013-01-17 22:27:00,
2013-01-17 16:28:00,50.8,29.0,30.40,NNW,338,2.2,6.7,43,0.00,,,0.00,WUHU216HW,2013-01-17 22:28:00,
2013-01-17 16:29:00,50.6,28.8,30.40,NNW,338,4.5,6.7,43,0.00,,,0.00,WUHU216HW,2013-01-17 22:29:00,
2013-01-17 16:31:00,50.6,28.8,30.40,NNW,338,4.5,6.7,43,0.00,,,0.00,WUHU216HW,2013-01-17 22:31:00,
2013-01-17 16:36:00,50.4,28.6,30.40,NNW,338,1.1,4.7,43,0.00,,,0.00,WUHU216HW,2013-01-17 22:36:00,
2013-01-17 16:38:00,50.9,29.2,30.40,North,0,1.8,4.7,43,0.00,,,0.00,WUHU216HW,2013-01-17 22:38:00,
2013-01-17 16:41:00,51.3,28.9,30.40,NNW,338,5.1,5.1,42,0.00,,,0.00,WUHU216HW,2013-01-17 22:41:00,
2013-01-17 16:43:00,50.9,28.5,30.40,NE,45,3.6,5.1,42,0.00,,,0.00,WUHU216HW,2013-01-17 22:43:00,
2013-01-17 16:45:00,50.8,29.0,30.40,North,0,1.1,5.1,43,0.00,,,0.00,WUHU216HW,2013-01-17 22:45:00,
2013-01-17 16:46:00,50.8,29.0,30.40,North,0,1.1,5.1,43,0.00,,,0.00,WUHU216HW,2013-01-17 22:46:00,
2013-01-17 16:48:00,50.8,29.0,30.40,NW,315,1.6,5.1,43,0.00,,,0.00,WUHU216HW,2013-01-17 22:48:00,
2013-01-17 16:50:00,50.6,28.3,30.40,NW,315,1.8,3.6,42,0.00,,,0.00,WUHU216HW,2013-01-17 22:50:00,
2013-01-17 16:51:00,50.6,28.3,30.40,NW,315,1.8,3.6,42,0.00,,,0.00,WUHU216HW,2013-01-17 22:51:00,
2013-01-17 16:52:00,50.4,28.1,30.40,North,0,2.5,3.6,42,0.00,,,0.00,WUHU216HW,2013-01-17 22:52:00,
2013-01-17 16:54:00,50.2,27.9,30.40,North,0,1.6,2.9,42,0.00,,,0.00,WUHU216HW,2013-01-17 22:54:00,
2013-01-17 16:56:00,50.2,27.9,30.40,North,0,1.6,2.9,42,0.00,,,0.00,WUHU216HW,2013-01-17 22:56:00,
2013-01-17 16:57:00,50.0,27.7,30.40,North,0,1.1,2.9,42,0.00,,,0.00,WUHU216HW,2013-01-17 22:57:00,
2013-01-17 16:58:00,50.0,28.4,30.40,NNW,338,1.8,2.9,43,0.00,,,0.00,WUHU216HW,2013-01-17 22:58:00,
2013-01-17 17:01:00,50.0,28.4,30.40,NNW,338,1.8,2.9,43,0.00,,,0.00,WUHU216HW,2013-01-17 23:01:00,
2013-01-17 17:03:00,49.7,28.0,30.41,North,0,1.1,2.2,43,0.00,,,0.00,WUHU216HW,2013-01-17 23:03:00,
2013-01-17 17:05:00,49.5,27.8,30.40,NW,315,2.5,2.5,43,0.00,,,0.00,WUHU216HW,2013-01-17 23:05:00,
2013-01-17 17:06:00,49.3,27.6,30.40,NNW,338,1.8,2.5,43,0.00,,,0.00,WUHU216HW,2013-01-17 23:06:00,
2013-01-17 17:08:00,49.0,27.3,30.41,NNW,338,2.0,2.5,43,0.00,,,0.00,WUHU216HW,2013-01-17 23:08:00,
2013-01-17 17:10:00,48.6,27.0,30.41,NNW,338,3.4,4.0,43,0.00,,,0.00,WUHU216HW,2013-01-17 23:10:00,
2013-01-17 17:11:00,48.4,27.4,30.40,North,0,1.1,4.0,44,0.00,,,0.00,WUHU216HW,2013-01-17 23:11:00,
2013-01-17 17:13:00,47.9,26.8,30.40,NNE,23,1.3,4.0,44,0.00,,,0.00,WUHU216HW,2013-01-17 23:13:00,
2013-01-17 17:15:00,47.7,27.3,30.40,NNW,338,2.2,4.0,45,0.00,,,0.00,WUHU216HW,2013-01-17 23:15:00,
2013-01-17 17:16:00,47.5,27.1,30.41,NNE,23,2.9,4.0,45,0.00,,,0.00,WUHU216HW,2013-01-17 23:16:00,
2013-01-17 17:19:00,47.0,26.6,30.40,North,0,0.7,3.4,45,0.00,,,0.00,WUHU216HW,2013-01-17 23:19:00,
2013-01-17 17:20:00,46.8,27.0,30.41,North,0,1.1,3.4,46,0.00,,,0.00,WUHU216HW,2013-01-17 23:20:00,
2013-01-17 17:21:00,46.4,26.6,30.41,NNW,338,0.7,3.4,46,0.00,,,0.00,WUHU216HW,2013-01-17 23:21:00,
2013-01-17 17:22:00,46.4,26.6,30.41,NNW,338,0.7,3.4,46,0.00,,,0.00,WUHU216HW,2013-01-17 23:22:00,
2013-01-17 17:25:00,45.7,26.6,30.41,NNW,338,1.3,2.9,47,0.00,,,0.00,WUHU216HW,2013-01-17 23:25:00,
2013-01-17 17:27:00,45.2,26.6,30.41,NNW,338,0.4,1.8,48,0.00,,,0.00,WUHU216HW,2013-01-17 23:27:00,
2013-01-17 17:29:00,45.0,26.5,30.41,NNW,338,0.7,1.8,48,0.00,,,0.00,WUHU216HW,2013-01-17 23:29:00,
2013-01-17 17:30:00,44.8,26.3,30.41,NNW,338,2.0,2.0,48,0.00,,,0.00,WUHU216HW,2013-01-17 23:30:00,
2013-01-17 17:32:00,44.3,26.3,30.41,North,0,0.4,2.0,49,0.00,,,0.00,WUHU216HW,2013-01-17 23:32:00,
2013-01-17 17:33:00,44.3,26.3,30.41,NNW,338,0.4,2.0,49,0.00,,,0.00,WUHU216HW,2013-01-17 23:33:00,
2013-01-17 17:35:00,44.1,26.2,30.41,NW,315,2.5,2.5,49,0.00,,,0.00,WUHU216HW,2013-01-17 23:35:00,
2013-01-17 17:37:00,43.9,26.0,30.41,North,0,0.4,2.5,49,0.00,,,0.00,WUHU216HW,2013-01-17 23:37:00,
2013-01-17 17:39:00,43.6,26.2,30.41,NNW,338,1.8,2.5,50,0.00,,,0.00,WUHU216HW,2013-01-17 23:39:00,
2013-01-17 17:40:00,43.6,26.2,30.41,NNW,338,1.6,2.5,50,0.00,,,0.00,WUHU216HW,2013-01-17 23:40:00,
2013-01-17 17:42:00,43.4,26.0,30.41,North,0,1.1,2.9,50,0.00,,,0.00,WUHU216HW,2013-01-17 23:42:00,
2013-01-17 17:44:00,43.4,26.5,30.41,North,0,0.7,2.9,51,0.00,,,0.00,WUHU216HW,2013-01-17 23:44:00,
2013-01-17 17:45:00,43.2,26.3,30.41,North,0,2.0,2.9,51,0.00,,,0.00,WUHU216HW,2013-01-17 23:45:00,
2013-01-17 17:47:00,43.2,26.3,30.41,North,0,0.4,2.9,51,0.00,,,0.00,WUHU216HW,2013-01-17 23:47:00,
2013-01-17 17:48:00,43.0,26.2,30.41,North,0,0.4,2.9,51,0.00,,,0.00,WUHU216HW,2013-01-17 23:48:00,
2013-01-17 17:50:00,42.8,26.0,30.41,North,0,0.2,2.9,51,0.00,,,0.00,WUHU216HW,2013-01-17 23:50:00,
2013-01-17 17:52:00,42.7,26.3,30.41,North,0,0.2,2.0,52,0.00,,,0.00,WUHU216HW,2013-01-17 23:52:00,
2013-01-17 17:53:00,42.5,26.1,30.41,North,0,0.4,2.0,52,0.00,,,0.00,WUHU216HW,2013-01-17 23:53:00,
2013-01-17 17:56:00,42.3,25.5,30.42,NNE,23,0.4,1.1,51,0.00,,,0.00,WUHU216HW,2013-01-17 23:56:00,
2013-01-17 17:58:00,42.3,25.5,30.42,NNE,23,0.4,1.1,51,0.00,,,0.00,WUHU216HW,2013-01-17 23:58:00,
2013-01-17 18:00:00,41.9,25.6,30.42,NNE,23,0.4,1.1,52,0.00,,,0.00,WUHU216HW,2013-01-18 00:00:00,
2013-01-17 18:02:00,41.6,25.2,30.42,North,0,0.2,1.1,52,0.00,,,0.00,WUHU216HW,2013-01-18 00:02:00,
2013-01-17 18:03:00,41.6,25.2,30.42,North,0,0.2,1.1,52,0.00,,,0.00,WUHU216HW,2013-01-18 00:03:00,
2013-01-17 18:04:00,41.4,25.0,30.42,North,0,0.4,1.1,52,0.00,,,0.00,WUHU216HW,2013-01-18 00:04:00,
2013-01-17 18:05:00,41.2,24.9,30.42,North,0,0.4,1.1,52,0.00,,,0.00,WUHU216HW,2013-01-18 00:05:00,
2013-01-17 18:07:00,41.0,25.1,30.42,North,0,0.4,1.1,53,0.00,,,0.00,WUHU216HW,2013-01-18 00:07:00,
2013-01-17 18:08:00,41.0,25.1,30.42,North,0,0.4,1.1,53,0.00,,,0.00,WUHU216HW,2013-01-18 00:08:00,
2013-01-17 18:09:00,40.9,25.4,30.42,North,0,0.2,0.4,54,0.00,,,0.00,WUHU216HW,2013-01-18 00:09:00,
2013-01-17 18:10:00,40.7,25.2,30.42,North,0,0.4,0.4,54,0.00,,,0.00,WUHU216HW,2013-01-18 00:10:00,
2013-01-17 18:13:00,40.5,25.0,30.42,North,0,0.4,0.4,54,0.00,,,0.00,WUHU216HW,2013-01-18 00:13:00,
2013-01-17 18:15:00,40.1,24.8,30.42,North,0,0.0,0.4,54,0.00,,,0.00,WUHU216HW,2013-01-18 00:15:00,
2013-01-17 18:16:00,40.0,24.6,30.42,North,0,0.0,0.4,54,0.00,,,0.00,WUHU216HW,2013-01-18 00:16:00,
2013-01-17 18:18:00,40.0,24.6,30.42,North,0,0.0,0.4,54,0.00,,,0.00,WUHU216HW,2013-01-18 00:18:00,
2013-01-17 18:20:00,39.6,24.7,30.42,North,0,0.4,0.7,55,0.00,,,0.00,WUHU216HW,2013-01-18 00:20:00,
2013-01-17 18:21:00,39.4,24.5,30.42,North,0,0.4,0.7,55,0.00,,,0.00,WUHU216HW,2013-01-18 00:21:00,
2013-01-17 18:23:00,39.2,24.8,30.42,NNE,23,0.9,0.9,56,0.00,,,0.00,WUHU216HW,2013-01-18 00:23:00,
2013-01-17 18:25:00,39.2,25.2,30.42,NNE,23,0.2,0.9,57,0.00,,,0.00,WUHU216HW,2013-01-18 00:25:00,
2013-01-17 18:26:00,39.2,25.2,30.42,North,0,2.2,2.2,57,0.00,,,0.00,WUHU216HW,2013-01-18 00:26:00,
2013-01-17 18:28:00,39.2,25.2,30.42,NNE,23,1.8,2.2,57,0.00,,,0.00,WUHU216HW,2013-01-18 00:28:00,
2013-01-17 18:29:00,39.4,25.7,30.43,NNE,23,2.0,2.2,58,0.00,,,0.00,WUHU216HW,2013-01-18 00:29:00,
2013-01-17 18:30:00,39.4,25.7,30.43,NNE,23,0.7,2.2,58,0.00,,,0.00,WUHU216HW,2013-01-18 00:30:00,
2013-01-17 18:32:00,39.4,25.4,30.43,NNE,23,2.5,2.5,57,0.00,,,0.00,WUHU216HW,2013-01-18 00:32:00,
2013-01-17 18:33:00,39.4,25.4,30.43,NNE,23,2.5,2.5,57,0.00,,,0.00,WUHU216HW,2013-01-18 00:33:00,
2013-01-17 18:34:00,39.6,25.9,30.43,NNE,23,2.2,2.7,58,0.00,,,0.00,WUHU216HW,2013-01-18 00:34:00,
2013-01-17 18:35:00,39.6,25.9,30.43,NNE,23,2.7,2.7,58,0.00,,,0.00,WUHU216HW,2013-01-18 00:35:00,
2013-01-17 18:38:00,39.8,26.1,30.43,NE,45,2.5,2.7,58,0.00,,,0.00,WUHU216HW,2013-01-18 00:38:00,
2013-01-17 18:39:00,39.8,26.1,30.43,NE,45,3.1,3.1,58,0.00,,,0.00,WUHU216HW,2013-01-18 00:39:00,
2013-01-17 18:41:00,40.0,26.3,30.43,NE,45,2.5,3.1,58,0.00,,,0.00,WUHU216HW,2013-01-18 00:41:00,
2013-01-17 18:43:00,40.0,26.3,30.43,NE,45,1.1,3.1,58,0.00,,,0.00,WUHU216HW,2013-01-18 00:43:00,
2013-01-17 18:45:00,40.0,26.3,30.43,NE,45,2.9,3.1,58,0.00,,,0.00,WUHU216HW,2013-01-18 00:45:00,
2013-01-17 18:46:00,40.1,26.5,30.43,NE,45,0.4,3.1,58,0.00,,,0.00,WUHU216HW,2013-01-18 00:46:00,
2013-01-17 18:47:00,40.0,26.3,30.43,NE,45,1.8,3.1,58,0.00,,,0.00,WUHU216HW,2013-01-18 00:47:00,
2013-01-17 18:48:00,40.0,26.3,30.43,NE,45,1.8,3.1,58,0.00,,,0.00,WUHU216HW,2013-01-18 00:48:00,
2013-01-17 18:49:00,40.0,26.3,30.43,NNE,23,1.1,2.9,58,0.00,,,0.00,WUHU216HW,2013-01-18 00:49:00,
2013-01-17 18:50:00,40.0,26.7,30.43,NE,45,4.0,4.0,59,0.00,,,0.00,WUHU216HW,2013-01-18 00:50:00,
2013-01-17 18:51:00,40.0,26.7,30.43,ENE,68,2.2,4.0,59,0.00,,,0.00,WUHU216HW,2013-01-18 00:51:00,
2013-01-17 18:54:00,40.0,26.7,30.43,NE,45,2.0,4.0,59,0.00,,,0.00,WUHU216HW,2013-01-18 00:54:00,
2013-01-17 18:55:00,40.0,26.7,30.43,ENE,68,0.4,4.0,59,0.00,,,0.00,WUHU216HW,2013-01-18 00:55:00,
2013-01-17 18:57:00,40.0,26.7,30.43,NE,45,0.4,4.0,59,0.00,,,0.00,WUHU216HW,2013-01-18 00:57:00,
2013-01-17 18:58:00,40.0,26.7,30.43,NE,45,0.9,4.0,59,0.00,,,0.00,WUHU216HW,2013-01-18 00:58:00,
2013-01-17 18:59:00,40.0,26.7,30.43,NE,45,0.9,4.0,59,0.00,,,0.00,WUHU216HW,2013-01-18 00:59:00,
2013-01-17 19:00:00,40.0,26.7,30.43,East,90,0.7,4.0,59,0.00,,,0.00,WUHU216HW,2013-01-18 01:00:00,
2013-01-17 19:01:00,39.8,26.6,30.43,NE,45,1.1,2.7,59,0.00,,,0.00,WUHU216HW,2013-01-18 01:01:00,
2013-01-17 19:03:00,39.6,26.4,30.43,NE,45,1.8,2.2,59,0.00,,,0.00,WUHU216HW,2013-01-18 01:03:00,
2013-01-17 19:04:00,39.6,26.4,30.43,NE,45,1.8,2.2,59,0.00,,,0.00,WUHU216HW,2013-01-18 01:04:00,
2013-01-17 19:05:00,39.2,26.5,30.43,ENE,68,0.4,1.8,60,0.00,,,0.00,WUHU216HW,2013-01-18 01:05:00,
2013-01-17 19:07:00,39.2,26.5,30.43,ENE,68,1.1,1.8,60,0.00,,,0.00,WUHU216HW,2013-01-18 01:07:00,
2013-01-17 19:08:00,39.2,26.5,30.43,NE,45,0.7,1.8,60,0.00,,,0.00,WUHU216HW,2013-01-18 01:08:00,
2013-01-17 19:09:00,39.2,26.5,30.43,NE,45,0.7,1.8,60,0.00,,,0.00,WUHU216HW,2013-01-18 01:09:00,
2013-01-17 19:10:00,39.1,26.3,30.43,NE,45,1.1,1.8,60,0.00,,,0.00,WUHU216HW,2013-01-18 01:10:00,
2013-01-17 19:11:00,39.1,26.3,30.43,NE,45,1.8,1.8,60,0.00,,,0.00,WUHU216HW,2013-01-18 01:11:00,
2013-01-17 19:13:00,38.9,26.1,30.43,NE,45,0.7,2.5,60,0.00,,,0.00,WUHU216HW,2013-01-18 01:13:00,
2013-01-17 19:14:00,38.9,26.1,30.43,NE,45,0.7,2.5,60,0.00,,,0.00,WUHU216HW,2013-01-18 01:14:00,
2013-01-17 19:15:00,38.9,26.1,30.43,NE,45,0.7,2.5,60,0.00,,,0.00,WUHU216HW,2013-01-18 01:15:00,
2013-01-17 19:16:00,38.9,26.1,30.43,NE,45,1.3,2.5,60,0.00,,,0.00,WUHU216HW,2013-01-18 01:16:00,
2013-01-17 19:17:00,38.7,26.0,30.43,NNE,23,1.1,2.5,60,0.00,,,0.00,WUHU216HW,2013-01-18 01:17:00,
2013-01-17 19:19:00,38.7,26.0,30.43,NNE,23,0.4,2.5,60,0.00,,,0.00,WUHU216HW,2013-01-18 01:19:00,
2013-01-17 19:20:00,38.5,26.2,30.43,NE,45,0.4,2.5,61,0.00,,,0.00,WUHU216HW,2013-01-18 01:20:00,
2013-01-17 19:22:00,38.5,26.2,30.43,NNE,23,1.1,1.3,61,0.00,,,0.00,WUHU216HW,2013-01-18 01:22:00,
2013-01-17 19:23:00,38.3,26.0,30.43,NE,45,0.4,1.3,61,0.00,,,0.00,WUHU216HW,2013-01-18 01:23:00,
2013-01-17 19:24:00,38.3,26.0,30.43,NE,45,0.4,1.3,61,0.00,,,0.00,WUHU216HW,2013-01-18 01:24:00,
2013-01-17 19:26:00,38.2,26.3,30.43,NE,45,0.2,1.3,62,0.00,,,0.00,WUHU216HW,2013-01-18 01:26:00,
2013-01-17 19:27:00,38.2,26.3,30.43,NNE,23,0.2,1.3,62,0.00,,,0.00,WUHU216HW,2013-01-18 01:27:00,
2013-01-17 19:29:00,38.0,26.1,30.43,NNE,23,0.4,1.3,62,0.00,,,0.00,WUHU216HW,2013-01-18 01:29:00,
2013-01-17 19:31:00,37.8,25.9,30.43,NNE,23,0.4,1.8,62,0.00,,,0.00,WUHU216HW,2013-01-18 01:31:00,
2013-01-17 19:33:00,37.8,26.3,30.43,NNE,23,1.1,1.8,63,0.00,,,0.00,WUHU216HW,2013-01-18 01:33:00,
2013-01-17 19:34:00,37.8,26.3,30.43,NNE,23,1.1,1.8,63,0.00,,,0.00,WUHU216HW,2013-01-18 01:34:00,
2013-01-17 19:35:00,37.6,25.7,30.43,NNE,23,1.3,1.8,62,0.00,,,0.00,WUHU216HW,2013-01-18 01:35:00,
2013-01-17 19:38:00,37.4,25.6,30.43,NNE,23,0.4,2.2,62,0.00,,,0.00,WUHU216HW,2013-01-18 01:38:00,
2013-01-17 19:39:00,37.4,25.6,30.43,NNE,23,0.4,2.2,62,0.00,,,0.00,WUHU216HW,2013-01-18 01:39:00,
2013-01-17 19:40:00,37.4,25.6,30.43,NNE,23,0.7,2.2,62,0.00,,,0.00,WUHU216HW,2013-01-18 01:40:00,
2013-01-17 19:41:00,37.4,25.6,30.43,NE,45,1.8,2.2,62,0.00,,,0.00,WUHU216HW,2013-01-18 01:41:00,
2013-01-17 19:42:00,37.4,26.0,30.43,NE,45,1.6,2.2,63,0.00,,,0.00,WUHU216HW,2013-01-18 01:42:00,
2013-01-17 19:45:00,37.4,25.6,30.43,NNE,23,1.3,2.2,62,0.00,,,0.00,WUHU216HW,2013-01-18 01:45:00,
2013-01-17 19:47:00,37.4,26.0,30.43,NNE,23,2.9,2.9,63,0.00,,,0.00,WUHU216HW,2013-01-18 01:47:00,
2013-01-17 19:48:00,37.4,26.0,30.43,NE,45,1.1,2.9,63,0.00,,,0.00,WUHU216HW,2013-01-18 01:48:00,
2013-01-17 19:49:00,37.4,26.0,30.43,NNE,23,0.0,2.9,63,0.00,,,0.00,WUHU216HW,2013-01-18 01:49:00,
2013-01-17 19:50:00,37.4,26.0,30.43,NE,45,1.1,2.9,63,0.00,,,0.00,WUHU216HW,2013-01-18 01:50:00,
2013-01-17 19:52:00,37.3,25.8,30.43,NE,45,1.1,3.1,63,0.00,,,0.00,WUHU216HW,2013-01-18 01:52:00,
2013-01-17 19:54:00,37.3,25.8,30.43,NE,45,1.8,3.1,63,0.00,,,0.00,WUHU216HW,2013-01-18 01:54:00,
2013-01-17 19:55:00,37.3,25.8,30.43,NE,45,1.8,3.1,63,0.00,,,0.00,WUHU216HW,2013-01-18 01:55:00,
2013-01-17 19:56:00,37.3,25.8,30.43,NNE,23,1.6,3.1,63,0.00,,,0.00,WUHU216HW,2013-01-18 01:56:00,
2013-01-17 19:58:00,37.1,25.7,30.43,NNE,23,0.4,3.1,63,0.00,,,0.00,WUHU216HW,2013-01-18 01:58:00,
2013-01-17 20:00:00,37.1,25.7,30.43,NNE,23,1.6,3.1,63,0.00,,,0.00,WUHU216HW,2013-01-18 02:00:00,
2013-01-17 20:01:00,37.1,25.7,30.43,NNE,23,1.6,1.8,63,0.00,,,0.00,WUHU216HW,2013-01-18 02:01:00,
2013-01-17 20:03:00,36.9,25.8,30.43,NNE,23,0.0,1.8,64,0.00,,,0.00,WUHU216HW,2013-01-18 02:03:00,
2013-01-17 20:05:00,36.9,25.8,30.43,NNE,23,0.2,1.6,64,0.00,,,0.00,WUHU216HW,2013-01-18 02:05:00,
2013-01-17 20:07:00,36.5,25.5,30.43,North,0,0.2,1.6,64,0.00,,,0.00,WUHU216HW,2013-01-18 02:07:00,
2013-01-17 20:08:00,36.5,25.5,30.43,North,0,0.2,1.6,64,0.00,,,0.00,WUHU216HW,2013-01-18 02:08:00,
2013-01-17 20:10:00,36.4,25.4,30.43,North,0,0.0,1.6,64,0.00,,,0.00,WUHU216HW,2013-01-18 02:10:00,
2013-01-17 20:11:00,36.0,25.0,30.43,North,0,0.0,0.2,64,0.00,,,0.00,WUHU216HW,2013-01-18 02:11:00,
2013-01-17 20:12:00,35.8,24.9,30.43,North,0,0.0,0.2,64,0.00,,,0.00,WUHU216HW,2013-01-18 02:12:00,
2013-01-17 20:15:00,35.1,24.1,30.43,North,0,0.0,0.2,64,0.00,,,0.00,WUHU216HW,2013-01-18 02:15:00,
2013-01-17 20:16:00,34.9,23.9,30.43,North,0,0.0,0.2,64,0.00,,,0.00,WUHU216HW,2013-01-18 02:16:00,
2013-01-17 20:17:00,34.6,23.6,30.43,North,0,0.0,0.2,64,0.00,,,0.00,WUHU216HW,2013-01-18 02:17:00,
2013-01-17 20:19:00,34.2,23.2,30.43,North,0,0.0,0.0,64,0.00,,,0.00,WUHU216HW,2013-01-18 02:19:00,
2013-01-17 20:20:00,33.8,22.9,30.43,North,0,0.0,0.0,64,0.00,,,0.00,WUHU216HW,2013-01-18 02:20:00,
2013-01-17 20:22:00,33.5,22.5,30.43,North,0,0.0,0.0,64,0.00,,,0.00,WUHU216HW,2013-01-18 02:22:00,
2013-01-17 20:25:00,32.8,22.2,30.43,North,0,0.0,0.0,65,0.00,,,0.00,WUHU216HW,2013-01-18 02:25:00,
2013-01-17 20:26:00,32.6,22.1,30.43,North,0,0.0,0.0,65,0.00,,,0.00,WUHU216HW,2013-01-18 02:26:00,
2013-01-17 20:28:00,32.2,22.5,30.43,North,0,0.0,0.0,67,0.00,,,0.00,WUHU216HW,2013-01-18 02:28:00,
2013-01-17 20:30:00,32.0,22.3,30.43,North,0,0.0,0.0,67,0.00,,,0.00,WUHU216HW,2013-01-18 02:30:00,
2013-01-17 20:31:00,32.0,22.7,30.43,North,0,0.0,0.0,68,0.00,,,0.00,WUHU216HW,2013-01-18 02:31:00,
2013-01-17 20:32:00,31.9,23.2,30.43,North,0,0.0,0.0,70,0.00,,,0.00,WUHU216HW,2013-01-18 02:32:00,
2013-01-17 20:34:00,31.7,23.7,30.43,North,0,0.0,0.0,72,0.00,,,0.00,WUHU216HW,2013-01-18 02:34:00,
2013-01-17 20:35:00,31.7,23.7,30.43,North,0,0.0,0.0,72,0.00,,,0.00,WUHU216HW,2013-01-18 02:35:00,
2013-01-17 20:37:00,31.3,23.3,30.43,North,0,0.0,0.0,72,0.00,,,0.00,WUHU216HW,2013-01-18 02:37:00,
2013-01-17 20:40:00,31.0,22.3,30.43,North,0,0.0,0.0,70,0.00,,,0.00,WUHU216HW,2013-01-18 02:40:00,
2013-01-17 20:44:00,30.6,22.3,30.43,North,0,0.0,0.0,71,0.00,,,0.00,WUHU216HW,2013-01-18 02:44:00,
2013-01-17 20:45:00,30.6,22.3,30.43,North,0,0.0,0.0,71,0.00,,,0.00,WUHU216HW,2013-01-18 02:45:00,
2013-01-17 20:50:00,30.1,22.1,30.43,North,0,0.0,0.0,72,0.00,,,0.00,WUHU216HW,2013-01-18 02:50:00,
2013-01-17 20:51:00,30.1,22.1,30.43,North,0,0.0,0.0,72,0.00,,,0.00,WUHU216HW,2013-01-18 02:51:00,
2013-01-17 20:53:00,30.1,22.4,30.43,North,0,0.0,0.0,73,0.00,,,0.00,WUHU216HW,2013-01-18 02:53:00,
2013-01-17 20:55:00,30.1,22.4,30.43,North,0,0.0,0.0,73,0.00,,,0.00,WUHU216HW,2013-01-18 02:55:00,
2013-01-17 20:56:00,30.1,22.4,30.43,North,0,0.0,0.0,73,0.00,,,0.00,WUHU216HW,2013-01-18 02:56:00,
2013-01-17 20:59:00,29.7,23.1,30.43,North,0,0.0,0.0,76,0.00,,,0.00,WUHU216HW,2013-01-18 02:59:00,
2013-01-17 21:01:00,29.7,22.7,30.43,North,0,0.0,0.0,75,0.00,,,0.00,WUHU216HW,2013-01-18 03:01:00,
2013-01-17 21:03:00,29.5,22.5,30.43,North,0,0.0,0.0,75,0.00,,,0.00,WUHU216HW,2013-01-18 03:03:00,
2013-01-17 21:05:00,29.2,21.9,30.43,North,0,0.0,0.0,74,0.00,,,0.00,WUHU216HW,2013-01-18 03:05:00,
2013-01-17 21:06:00,29.2,21.6,30.43,North,0,0.0,0.0,73,0.00,,,0.00,WUHU216HW,2013-01-18 03:06:00,
2013-01-17 21:08:00,28.8,21.3,30.44,North,0,0.0,0.0,73,0.00,,,0.00,WUHU216HW,2013-01-18 03:08:00,
2013-01-17 21:10:00,28.4,20.9,30.44,North,0,0.0,0.0,73,0.00,,,0.00,WUHU216HW,2013-01-18 03:10:00,
2013-01-17 21:11:00,28.4,20.9,30.44,North,0,0.0,0.0,73,0.00,,,0.00,WUHU216HW,2013-01-18 03:11:00,
2013-01-17 21:14:00,28.3,21.3,30.44,North,0,0.0,0.0,75,0.00,,,0.00,WUHU216HW,2013-01-18 03:14:00,
2013-01-17 21:16:00,28.3,21.6,30.44,North,0,0.0,0.0,76,0.00,,,0.00,WUHU216HW,2013-01-18 03:16:00,
2013-01-17 21:17:00,28.4,23.0,30.44,NE,45,0.4,0.4,80,0.00,,,0.00,WUHU216HW,2013-01-18 03:17:00,
2013-01-17 21:21:00,29.0,23.9,30.43,East,90,0.4,0.9,81,0.00,,,0.00,WUHU216HW,2013-01-18 03:21:00,
2013-01-17 21:24:00,29.2,23.8,30.44,East,90,0.2,0.9,80,0.00,,,0.00,WUHU216HW,2013-01-18 03:24:00,
2013-01-17 21:25:00,29.3,23.7,30.43,East,90,0.2,0.9,79,0.00,,,0.00,WUHU216HW,2013-01-18 03:25:00,
2013-01-17 21:27:00,29.3,23.7,30.43,East,90,0.2,0.9,79,0.00,,,0.00,WUHU216HW,2013-01-18 03:27:00,
2013-01-17 21:29:00,29.9,23.9,30.43,ENE,68,0.9,1.1,78,0.00,,,0.00,WUHU216HW,2013-01-18 03:29:00,
2013-01-17 21:31:00,30.2,24.2,30.43,NE,45,0.7,1.1,78,0.00,,,0.00,WUHU216HW,2013-01-18 03:31:00,
2013-01-17 21:32:00,30.2,24.2,30.43,NE,45,0.7,1.1,78,0.00,,,0.00,WUHU216HW,2013-01-18 03:32:00,
2013-01-17 21:34:00,30.6,24.0,30.43,NNE,23,0.9,1.1,76,0.00,,,0.00,WUHU216HW,2013-01-18 03:34:00,
2013-01-17 21:35:00,30.6,24.0,30.43,NNE,23,0.4,1.1,76,0.00,,,0.00,WUHU216HW,2013-01-18 03:35:00,
2013-01-17 21:37:00,30.6,24.0,30.43,NNE,23,0.4,1.1,76,0.00,,,0.00,WUHU216HW,2013-01-18 03:37:00,
2013-01-17 21:38:00,30.1,23.4,30.44,NNE,23,0.2,1.1,76,0.00,,,0.00,WUHU216HW,2013-01-18 03:38:00,
2013-01-17 21:40:00,29.7,22.7,30.44,NNE,23,0.0,1.1,75,0.00,,,0.00,WUHU216HW,2013-01-18 03:40:00,
2013-01-17 21:42:00,29.5,23.1,30.44,NNE,23,0.0,1.1,77,0.00,,,0.00,WUHU216HW,2013-01-18 03:42:00,
2013-01-17 21:45:00,28.8,22.5,30.44,NNE,23,0.0,1.1,77,0.00,,,0.00,WUHU216HW,2013-01-18 03:45:00,
2013-01-17 21:46:00,28.4,22.2,30.44,NNE,23,0.0,0.4,77,0.00,,,0.00,WUHU216HW,2013-01-18 03:46:00,
2013-01-17 21:47:00,28.4,22.2,30.44,NNE,23,0.0,0.4,77,0.00,,,0.00,WUHU216HW,2013-01-18 03:47:00,
2013-01-17 21:50:00,27.9,21.6,30.44,NNE,23,0.0,0.0,77,0.00,,,0.00,WUHU216HW,2013-01-18 03:50:00,
2013-01-17 21:52:00,27.9,21.6,30.44,NNE,23,0.0,0.0,77,0.00,,,0.00,WUHU216HW,2013-01-18 03:52:00,
2013-01-17 21:54:00,27.5,20.9,30.44,NNE,23,0.0,0.0,76,0.00,,,0.00,WUHU216HW,2013-01-18 03:54:00,
2013-01-17 21:55:00,27.4,20.7,30.44,NNE,23,0.0,0.0,76,0.00,,,0.00,WUHU216HW,2013-01-18 03:55:00,
2013-01-17 21:57:00,27.4,20.7,30.44,NNE,23,0.0,0.0,76,0.00,,,0.00,WUHU216HW,2013-01-18 03:57:00,
2013-01-17 21:59:00,27.0,20.7,30.44,NNE,23,0.0,0.0,77,0.00,,,0.00,WUHU216HW,2013-01-18 03:59:00,
2013-01-17 22:01:00,26.8,20.5,30.44,NNE,23,0.0,0.0,77,0.00,,,0.00,WUHU216HW,2013-01-18 04:01:00,
2013-01-17 22:02:00,26.6,20.4,30.44,NNE,23,0.0,0.0,77,0.00,,,0.00,WUHU216HW,2013-01-18 04:02:00,
2013-01-17 22:03:00,26.6,20.4,30.44,NNE,23,0.0,0.0,77,0.00,,,0.00,WUHU216HW,2013-01-18 04:03:00,
2013-01-17 22:04:00,26.5,20.2,30.44,NNE,23,0.0,0.0,77,0.00,,,0.00,WUHU216HW,2013-01-18 04:04:00,
2013-01-17 22:06:00,26.3,20.6,30.44,NNE,23,0.0,0.0,79,0.00,,,0.00,WUHU216HW,2013-01-18 04:06:00,
2013-01-17 22:07:00,26.3,21.3,30.44,WSW,248,1.3,1.3,81,0.00,,,0.00,WUHU216HW,2013-01-18 04:07:00,
2013-01-17 22:09:00,26.3,20.6,30.44,WSW,248,0.2,1.3,79,0.00,,,0.00,WUHU216HW,2013-01-18 04:09:00,
2013-01-17 22:11:00,26.3,20.4,30.44,SW,225,0.0,1.3,78,0.00,,,0.00,WUHU216HW,2013-01-18 04:11:00,
2013-01-17 22:12:00,26.3,20.4,30.44,SW,225,0.0,1.3,78,0.00,,,0.00,WUHU216HW,2013-01-18 04:12:00,
2013-01-17 22:17:00,26.6,22.4,30.44,SSW,203,0.4,1.1,84,0.00,,,0.00,WUHU216HW,2013-01-18 04:17:00,
2013-01-17 22:18:00,26.6,22.4,30.44,SSW,203,0.4,1.1,84,0.00,,,0.00,WUHU216HW,2013-01-18 04:18:00,
2013-01-17 22:20:00,26.8,22.6,30.44,SSW,203,0.2,0.9,84,0.00,,,0.00,WUHU216HW,2013-01-18 04:20:00,
2013-01-17 22:23:00,26.8,22.3,30.44,SSW,203,0.4,0.9,83,0.00,,,0.00,WUHU216HW,2013-01-18 04:23:00,
2013-01-17 22:24:00,26.8,22.6,30.44,SSW,203,1.3,1.3,84,0.00,,,0.00,WUHU216HW,2013-01-18 04:24:00,
2013-01-17 22:26:00,27.0,23.0,30.44,SSW,203,0.7,1.3,85,0.00,,,0.00,WUHU216HW,2013-01-18 04:26:00,
2013-01-17 22:28:00,27.0,23.0,30.44,SSW,203,0.7,1.3,85,0.00,,,0.00,WUHU216HW,2013-01-18 04:28:00,
2013-01-17 22:31:00,26.8,22.6,30.45,SSW,203,0.2,1.3,84,0.00,,,0.00,WUHU216HW,2013-01-18 04:31:00,
2013-01-17 22:32:00,26.8,22.6,30.44,SSW,203,0.4,1.3,84,0.00,,,0.00,WUHU216HW,2013-01-18 04:32:00,
2013-01-17 22:33:00,26.8,22.6,30.44,SSW,203,0.4,1.3,84,0.00,,,0.00,WUHU216HW,2013-01-18 04:33:00,
2013-01-17 22:34:00,26.8,22.3,30.44,South,180,0.0,1.1,83,0.00,,,0.00,WUHU216HW,2013-01-18 04:34:00,
2013-01-17 22:35:00,26.8,22.3,30.44,South,180,0.0,1.1,83,0.00,,,0.00,WUHU216HW,2013-01-18 04:35:00,
2013-01-17 22:37:00,26.6,22.2,30.44,South,180,0.0,1.1,83,0.00,,,0.00,WUHU216HW,2013-01-18 04:37:00,
2013-01-17 22:38:00,26.6,22.2,30.44,South,180,0.0,1.1,83,0.00,,,0.00,WUHU216HW,2013-01-18 04:38:00,
2013-01-17 22:39:00,26.6,22.4,30.44,South,180,0.0,0.4,84,0.00,,,0.00,WUHU216HW,2013-01-18 04:39:00,
2013-01-17 22:41:00,26.6,22.2,30.44,South,180,0.0,0.4,83,0.00,,,0.00,WUHU216HW,2013-01-18 04:41:00,
2013-01-17 22:43:00,26.6,22.2,30.44,South,180,0.0,0.4,83,0.00,,,0.00,WUHU216HW,2013-01-18 04:43:00,
2013-01-17 22:46:00,26.3,21.5,30.44,South,180,0.0,0.4,82,0.00,,,0.00,WUHU216HW,2013-01-18 04:46:00,
2013-01-17 22:47:00,26.3,21.3,30.44,South,180,0.0,0.4,81,0.00,,,0.00,WUHU216HW,2013-01-18 04:47:00,
2013-01-17 22:48:00,26.3,21.3,30.44,South,180,0.0,0.4,81,0.00,,,0.00,WUHU216HW,2013-01-18 04:48:00,
2013-01-17 22:49:00,26.1,21.1,30.44,South,180,0.0,0.0,81,0.00,,,0.00,WUHU216HW,2013-01-18 04:49:00,
2013-01-17 22:53:00,25.9,20.6,30.45,South,180,0.0,0.0,80,0.00,,,0.00,WUHU216HW,2013-01-18 04:53:00,
2013-01-17 22:57:00,25.4,20.1,30.45,South,180,0.0,0.0,80,0.00,,,0.00,WUHU216HW,2013-01-18 04:57:00,
2013-01-17 22:58:00,25.4,20.1,30.45,South,180,0.0,0.0,80,0.00,,,0.00,WUHU216HW,2013-01-18 04:58:00,
2013-01-17 22:59:00,25.2,20.0,30.45,South,180,0.0,0.0,80,0.00,,,0.00,WUHU216HW,2013-01-18 04:59:00,
2013-01-17 23:00:00,25.2,20.0,30.45,South,180,0.0,0.0,80,0.00,,,0.00,WUHU216HW,2013-01-18 05:00:00,
2013-01-17 23:01:00,25.2,20.0,30.45,South,180,0.0,0.0,80,0.00,,,0.00,WUHU216HW,2013-01-18 05:01:00,
2013-01-17 23:02:00,25.2,20.0,30.45,South,180,0.0,0.0,80,0.00,,,0.00,WUHU216HW,2013-01-18 05:02:00,
2013-01-17 23:04:00,25.0,19.8,30.45,South,180,0.0,0.0,80,0.00,,,0.00,WUHU216HW,2013-01-18 05:04:00,
2013-01-17 23:05:00,24.8,19.6,30.45,South,180,0.0,0.0,80,0.00,,,0.00,WUHU216HW,2013-01-18 05:05:00,
2013-01-17 23:07:00,24.8,19.6,30.45,South,180,0.0,0.0,80,0.00,,,0.00,WUHU216HW,2013-01-18 05:07:00,
2013-01-17 23:09:00,24.5,19.3,30.45,South,180,0.0,0.0,80,0.00,,,0.00,WUHU216HW,2013-01-18 05:09:00,
2013-01-17 23:10:00,24.3,19.1,30.45,South,180,0.0,0.0,80,0.00,,,0.00,WUHU216HW,2013-01-18 05:10:00,
2013-01-17 23:12:00,24.1,18.9,30.45,South,180,0.0,0.0,80,0.00,,,0.00,WUHU216HW,2013-01-18 05:12:00,
2013-01-17 23:15:00,24.1,19.2,30.45,South,180,0.0,0.0,81,0.00,,,0.00,WUHU216HW,2013-01-18 05:15:00,
2013-01-17 23:17:00,24.1,19.4,30.45,South,180,0.0,0.0,82,0.00,,,0.00,WUHU216HW,2013-01-18 05:17:00,
2013-01-17 23:20:00,24.7,20.0,30.45,South,180,0.0,0.0,82,0.00,,,0.00,WUHU216HW,2013-01-18 05:20:00,
2013-01-17 23:21:00,24.8,20.2,30.45,South,180,0.0,0.0,82,0.00,,,0.00,WUHU216HW,2013-01-18 05:21:00,
2013-01-17 23:22:00,24.8,20.2,30.45,South,180,0.0,0.0,82,0.00,,,0.00,WUHU216HW,2013-01-18 05:22:00,
2013-01-17 23:24:00,24.8,20.7,30.45,South,180,0.0,0.0,84,0.00,,,0.00,WUHU216HW,2013-01-18 05:24:00,
2013-01-17 23:26:00,24.8,20.4,30.45,South,180,0.0,0.0,83,0.00,,,0.00,WUHU216HW,2013-01-18 05:26:00,
2013-01-17 23:27:00,24.8,20.4,30.45,South,180,0.0,0.0,83,0.00,,,0.00,WUHU216HW,2013-01-18 05:27:00,
2013-01-17 23:28:00,24.8,20.4,30.45,South,180,0.0,0.0,83,0.00,,,0.00,WUHU216HW,2013-01-18 05:28:00,
2013-01-17 23:30:00,24.8,20.2,30.45,South,180,0.0,0.0,82,0.00,,,0.00,WUHU216HW,2013-01-18 05:30:00,
2013-01-17 23:31:00,24.7,20.0,30.45,South,180,0.0,0.0,82,0.00,,,0.00,WUHU216HW,2013-01-18 05:31:00,
2013-01-17 23:32:00,24.7,20.0,30.45,South,180,0.0,0.0,82,0.00,,,0.00,WUHU216HW,2013-01-18 05:32:00,
2013-01-17 23:33:00,24.5,19.5,30.45,South,180,0.0,0.0,81,0.00,,,0.00,WUHU216HW,2013-01-18 05:33:00,
2013-01-17 23:34:00,24.5,19.5,30.45,South,180,0.0,0.0,81,0.00,,,0.00,WUHU216HW,2013-01-18 05:34:00,
2013-01-17 23:35:00,24.5,19.5,30.45,South,180,0.0,0.0,81,0.00,,,0.00,WUHU216HW,2013-01-18 05:35:00,
2013-01-17 23:37:00,24.3,19.4,30.45,South,180,0.0,0.0,81,0.00,,,0.00,WUHU216HW,2013-01-18 05:37:00,
2013-01-17 23:39:00,24.1,19.4,30.45,South,180,0.0,0.0,82,0.00,,,0.00,WUHU216HW,2013-01-18 05:39:00,
2013-01-17 23:41:00,24.1,19.4,30.45,South,180,0.0,0.0,82,0.00,,,0.00,WUHU216HW,2013-01-18 05:41:00,
2013-01-17 23:42:00,24.1,19.4,30.45,South,180,0.0,0.0,82,0.00,,,0.00,WUHU216HW,2013-01-18 05:42:00,
2013-01-17 23:44:00,24.3,19.9,30.45,South,180,0.0,0.0,83,0.00,,,0.00,WUHU216HW,2013-01-18 05:44:00,
2013-01-17 23:45:00,24.3,19.9,30.45,South,180,0.0,0.0,83,0.00,,,0.00,WUHU216HW,2013-01-18 05:45:00,
2013-01-17 23:47:00,24.5,20.1,30.45,South,180,0.0,0.0,83,0.00,,,0.00,WUHU216HW,2013-01-18 05:47:00,
2013-01-17 23:49:00,24.7,20.3,30.45,South,180,0.0,0.0,83,0.00,,,0.00,WUHU216HW,2013-01-18 05:49:00,
2013-01-17 23:52:00,24.7,20.5,30.45,South,180,0.0,0.0,84,0.00,,,0.00,WUHU216HW,2013-01-18 05:52:00,
2013-01-17 23:53:00,24.7,20.5,30.45,South,180,0.0,0.0,84,0.00,,,0.00,WUHU216HW,2013-01-18 05:53:00,
2013-01-17 23:55:00,24.7,20.5,30.45,South,180,0.0,0.0,84,0.00,,,0.00,WUHU216HW,2013-01-18 05:55:00,
2013-01-17 23:57:00,24.5,20.3,30.45,South,180,0.0,0.0,84,0.00,,,0.00,WUHU216HW,2013-01-18 05:57:00,
2013-01-17 23:58:00,24.5,20.1,30.45,South,180,0.0,0.0,83,0.00,,,0.00,WUHU216HW,2013-01-18 05:58:00,